DAL430 EGLL-KLAX

Flight info

Callsign DAL430
Flight time 8h 56m
Altitude 36000
Route UMLAT T418 WELIN T420 TNT UN57 POL UN601 RIBEL DCT ERGAB DCT ASLIB DCT GOW DCT OBUBA DCT BALIX/M085F360 DCT 64N020W 67N030W 69N040W 70N050W/M085F380 70N060W DCT ADSAM/N0500F380 DCT 68N080W 65N092W 60N099W DCT LITGO/N0483F400 DCT ITREK DCT LWT DCT FFU DCT WINEN/N0486F410 Q73 EEVUN/N0485F400 Q73 HAKMN ANJLL4
Aircraft A359/H-SDE2E3GHIJ3J4J5LM1ORWXY/LB1D1

Departure

Time 2026-04-21 16:56
Airport London Heathrow Airport (EGLL)

Arrival

Time 2026-04-22 01:53
Airport Los Angeles International Airport (KLAX)
Time Latitude Longitude Altitude Speed Heading
2026-04-21 16:22 51.47094 -0.46419 92 ft 0 kts 235°
2026-04-21 16:34 51.47095 -0.46419 92 ft 0 kts 235°
2026-04-21 16:34 51.47094 -0.46419 92 ft 0 kts 235°
2026-04-21 16:35 51.47095 -0.46419 92 ft 0 kts 235°
2026-04-21 16:35 51.47094 -0.46419 92 ft 0 kts 235°
2026-04-21 16:36 51.47095 -0.46419 92 ft 0 kts 235°
2026-04-21 16:36 51.47094 -0.46419 92 ft 0 kts 235°
2026-04-21 16:36 51.47095 -0.46419 92 ft 0 kts 235°
2026-04-21 16:37 51.47094 -0.46419 92 ft 0 kts 235°
2026-04-21 16:37 51.47095 -0.46419 92 ft 0 kts 235°
2026-04-21 16:37 51.47094 -0.46419 92 ft 0 kts 235°
2026-04-21 16:38 51.47095 -0.46419 92 ft 0 kts 235°
2026-04-21 16:38 51.47094 -0.46419 92 ft 0 kts 235°
2026-04-21 16:39 51.47095 -0.46419 92 ft 0 kts 235°
2026-04-21 16:40 51.47100 -0.46407 93 ft 3 kts 235°
2026-04-21 16:40 51.47111 -0.46380 94 ft 3 kts 235°
2026-04-21 16:40 51.47123 -0.46354 91 ft 3 kts 238°
2026-04-21 16:41 51.47129 -0.46336 94 ft 3 kts 260°
2026-04-21 16:41 51.47125 -0.46300 92 ft 3 kts 315°
2026-04-21 16:41 51.47116 -0.46288 94 ft 2 kts 325°
2026-04-21 16:41 51.47100 -0.46272 92 ft 3 kts 325°
2026-04-21 16:42 51.47093 -0.46263 91 ft 1 kts 325°
2026-04-21 16:42 51.47091 -0.46261 94 ft 0 kts 325°
2026-04-21 16:47 51.47095 -0.46265 92 ft 3 kts 325°
2026-04-21 16:47 51.47144 -0.46321 96 ft 13 kts 327°
2026-04-21 16:47 51.47228 -0.46422 97 ft 15 kts 299°
2026-04-21 16:47 51.47238 -0.46584 92 ft 15 kts 269°
2026-04-21 16:48 51.47237 -0.46757 92 ft 16 kts 269°
2026-04-21 16:48 51.47178 -0.46868 96 ft 14 kts 183°
2026-04-21 16:48 51.47078 -0.46862 96 ft 14 kts 181°
2026-04-21 16:48 51.46975 -0.46864 92 ft 15 kts 180°
2026-04-21 16:49 51.46869 -0.46864 92 ft 16 kts 179°
2026-04-21 16:49 51.46759 -0.46861 95 ft 16 kts 179°
2026-04-21 16:49 51.46662 -0.46907 97 ft 14 kts 245°
2026-04-21 16:49 51.46658 -0.47069 95 ft 15 kts 269°
2026-04-21 16:50 51.46657 -0.47243 95 ft 16 kts 269°
2026-04-21 16:50 51.46655 -0.47428 95 ft 17 kts 269°
2026-04-21 16:50 51.46655 -0.47623 95 ft 18 kts 270°
2026-04-21 16:50 51.46655 -0.47825 96 ft 19 kts 270°
2026-04-21 16:51 51.46655 -0.48041 95 ft 19 kts 269°
2026-04-21 16:51 51.46654 -0.48261 94 ft 20 kts 270°
2026-04-21 16:51 51.46654 -0.48490 92 ft 21 kts 270°
2026-04-21 16:51 51.46647 -0.48699 94 ft 14 kts 253°
2026-04-21 16:52 51.46619 -0.48752 97 ft 0 kts 213°
2026-04-21 16:52 51.46604 -0.48763 97 ft 6 kts 203°
2026-04-21 16:52 51.46535 -0.48779 95 ft 14 kts 168°
2026-04-21 16:53 51.46481 -0.48658 96 ft 7 kts 86°
2026-04-21 16:53 51.46480 -0.48605 95 ft 0 kts 94°
2026-04-21 16:54 51.46480 -0.48603 92 ft 1 kts 94°
2026-04-21 16:54 51.46480 -0.48601 92 ft 0 kts 93°
2026-04-21 16:54 51.46480 -0.48600 92 ft 0 kts 92°
2026-04-21 16:55 51.46478 -0.48548 96 ft 24 kts 92°
2026-04-21 16:55 51.46482 -0.47973 95 ft 78 kts 90°
2026-04-21 16:56 51.46484 -0.46841 99 ft 124 kts 89°
2026-04-21 16:56 51.46488 -0.45273 310 ft 144 kts 89°
2026-04-21 16:56 51.46553 -0.43728 897 ft 135 kts 79°
2026-04-21 16:56 51.46874 -0.42370 1450 ft 129 kts 62°
2026-04-21 16:57 51.47365 -0.41149 1857 ft 132 kts 55°
2026-04-21 16:57 51.48010 -0.40024 2155 ft 143 kts 48°
2026-04-21 16:57 51.48773 -0.38873 2358 ft 158 kts 45°
2026-04-21 16:57 51.49531 -0.37503 2610 ft 171 kts 56°
2026-04-21 16:58 51.50275 -0.35914 2898 ft 186 kts 55°
2026-04-21 16:58 51.51071 -0.34199 3250 ft 197 kts 55°
2026-04-21 16:58 51.51787 -0.32238 3512 ft 213 kts 68°
2026-04-21 16:58 51.52316 -0.29932 3848 ft 225 kts 72°
2026-04-21 16:59 51.52823 -0.27519 4364 ft 232 kts 72°
2026-04-21 16:59 51.53505 -0.25143 4924 ft 238 kts 59°
2026-04-21 16:59 51.54701 -0.23252 5459 ft 249 kts 36°
2026-04-21 16:59 51.56361 -0.22326 6007 ft 261 kts 11°
2026-04-21 17:00 51.58201 -0.22236 6609 ft 268 kts
2026-04-21 17:00 51.60038 -0.22933 7276 ft 280 kts 339°
2026-04-21 17:00 51.61118 -0.24106 7619 ft 288 kts 318°
2026-04-21 17:00 51.62492 -0.27860 8391 ft 297 kts 290°
2026-04-21 17:01 51.62950 -0.31121 8968 ft 300 kts 279°
2026-04-21 17:01 51.63204 -0.34453 9649 ft 301 kts 277°
2026-04-21 17:01 51.63443 -0.37784 10083 ft 304 kts 278°
2026-04-21 17:01 51.63749 -0.41202 10584 ft 309 kts 280°
2026-04-21 17:02 51.64173 -0.44619 10828 ft 322 kts 284°
2026-04-21 17:02 51.64791 -0.48152 11094 ft 334 kts 289°
2026-04-21 17:02 51.65574 -0.51759 11320 ft 347 kts 289°
2026-04-21 17:02 51.66207 -0.55596 11552 ft 361 kts 282°
2026-04-21 17:03 51.66753 -0.59609 11762 ft 373 kts 288°
2026-04-21 17:03 51.67681 -0.63555 12013 ft 381 kts 298°
2026-04-21 17:03 51.69249 -0.66985 12443 ft 381 kts 319°
2026-04-21 17:03 51.71457 -0.69344 12722 ft 384 kts 340°
2026-04-21 17:04 51.74012 -0.70578 13088 ft 384 kts 352°
2026-04-21 17:04 51.76658 -0.71114 13582 ft 383 kts 358°
2026-04-21 17:04 51.79324 -0.71330 14037 ft 385 kts
2026-04-21 17:04 51.82017 -0.71448 14421 ft 388 kts
2026-04-21 17:05 51.84720 -0.71576 14831 ft 390 kts
2026-04-21 17:05 51.87437 -0.71759 15260 ft 391 kts 360°
2026-04-21 17:05 51.90163 -0.71998 15717 ft 393 kts 359°
2026-04-21 17:05 51.92898 -0.72277 16133 ft 395 kts 359°
2026-04-21 17:06 51.95650 -0.72583 16581 ft 396 kts 358°
2026-04-21 17:06 51.98404 -0.72901 17018 ft 398 kts 358°
2026-04-21 17:06 52.01164 -0.73370 17414 ft 402 kts 352°
2026-04-21 17:06 52.03890 -0.74414 17889 ft 403 kts 347°
2026-04-21 17:07 52.05684 -0.75227 18184 ft 405 kts 346°
2026-04-21 17:07 52.09307 -0.77034 18669 ft 409 kts 343°
2026-04-21 17:07 52.12016 -0.78464 19094 ft 409 kts 343°
2026-04-21 17:07 52.14712 -0.79908 19582 ft 407 kts 343°
2026-04-21 17:08 52.17397 -0.81345 20080 ft 405 kts 342°
2026-04-21 17:08 52.20079 -0.82772 20395 ft 409 kts 342°
2026-04-21 17:08 52.22780 -0.84222 20861 ft 407 kts 340°
2026-04-21 17:08 52.25342 -0.86102 21447 ft 403 kts 333°
2026-04-21 17:09 52.30288 -0.90636 21860 ft 415 kts 330°
2026-04-21 17:09 52.32784 -0.93104 21990 ft 422 kts 329°
2026-04-21 17:09 52.35284 -0.95623 22400 ft 423 kts 329°
2026-04-21 17:10 52.37778 -0.98151 22959 ft 420 kts 329°
2026-04-21 17:10 52.40260 -1.00658 23462 ft 418 kts 328°
2026-04-21 17:10 52.42720 -1.03135 24006 ft 413 kts 328°
2026-04-21 17:10 52.45137 -1.05566 24319 ft 414 kts 328°
2026-04-21 17:11 52.47603 -1.08043 24588 ft 416 kts 328°
2026-04-21 17:11 52.50073 -1.10522 24869 ft 417 kts 328°
2026-04-21 17:11 52.52552 -1.13009 25173 ft 418 kts 328°
2026-04-21 17:11 52.55058 -1.15534 25185 ft 426 kts 328°
2026-04-21 17:12 52.57593 -1.18087 25476 ft 428 kts 327°
2026-04-21 17:12 52.60128 -1.20642 25899 ft 425 kts 327°
2026-04-21 17:12 52.62638 -1.23180 26306 ft 424 kts 327°
2026-04-21 17:12 52.65149 -1.25724 26691 ft 423 kts 327°
2026-04-21 17:13 52.67659 -1.28270 27068 ft 423 kts 327°
2026-04-21 17:13 52.70160 -1.30810 27435 ft 423 kts 327°
2026-04-21 17:13 52.72668 -1.33353 27819 ft 423 kts 327°
2026-04-21 17:13 52.75173 -1.35904 28352 ft 423 kts 326°
2026-04-21 17:14 52.77678 -1.38461 28630 ft 425 kts 326°
2026-04-21 17:14 52.80196 -1.41038 28891 ft 427 kts 326°
2026-04-21 17:14 52.82722 -1.43626 29253 ft 426 kts 326°
2026-04-21 17:14 52.85236 -1.46201 29664 ft 425 kts 326°
2026-04-21 17:15 52.87743 -1.48774 30012 ft 424 kts 326°
2026-04-21 17:15 52.90250 -1.51348 30335 ft 423 kts 326°
2026-04-21 17:15 52.92723 -1.53892 30470 ft 426 kts 325°
2026-04-21 17:15 52.95251 -1.56497 30585 ft 429 kts 325°
2026-04-21 17:16 52.97789 -1.59116 30831 ft 429 kts 325°
2026-04-21 17:16 53.00329 -1.61739 31080 ft 430 kts 326°
2026-04-21 17:16 53.02866 -1.64359 31308 ft 430 kts 326°
2026-04-21 17:16 53.05500 -1.66745 31497 ft 433 kts 332°
2026-04-21 17:17 53.08287 -1.68709 31704 ft 436 kts 335°
2026-04-21 17:17 53.11113 -1.70551 31905 ft 437 kts 335°
2026-04-21 17:17 53.13953 -1.72340 32121 ft 438 kts 336°
2026-04-21 17:17 53.16813 -1.74110 32310 ft 439 kts 336°
2026-04-21 17:18 53.19682 -1.75876 32527 ft 439 kts 336°
2026-04-21 17:18 53.22549 -1.77642 32719 ft 439 kts 336°
2026-04-21 17:18 53.25418 -1.79418 32890 ft 442 kts 337°
2026-04-21 17:18 53.28321 -1.81223 32855 ft 447 kts 337°
2026-04-21 17:19 53.31238 -1.83044 33081 ft 447 kts 337°
2026-04-21 17:19 53.34150 -1.84865 33305 ft 447 kts 337°
2026-04-21 17:19 53.37065 -1.86692 33464 ft 448 kts 337°
2026-04-21 17:19 53.39987 -1.88526 33657 ft 448 kts 337°
2026-04-21 17:20 53.42907 -1.90361 33854 ft 449 kts 337°
2026-04-21 17:20 53.45834 -1.92204 34068 ft 449 kts 337°
2026-04-21 17:20 53.48762 -1.94049 34232 ft 450 kts 337°
2026-04-21 17:20 53.51699 -1.95903 34406 ft 451 kts 337°
2026-04-21 17:21 53.54637 -1.97761 34573 ft 451 kts 337°
2026-04-21 17:21 53.57576 -1.99623 34713 ft 452 kts 337°
2026-04-21 17:21 53.60518 -2.01489 34854 ft 453 kts 337°
2026-04-21 17:21 53.63433 -2.03340 34968 ft 453 kts 337°
2026-04-21 17:22 53.65429 -2.04609 35074 ft 454 kts 337°
2026-04-21 17:22 53.69343 -2.07101 35268 ft 454 kts 337°
2026-04-21 17:22 53.72305 -2.08989 35428 ft 454 kts 337°
2026-04-21 17:22 53.75263 -2.10879 35512 ft 456 kts 337°
2026-04-21 17:23 53.81157 -2.14833 35830 ft 455 kts 336°
2026-04-21 17:23 53.87046 -2.18911 35968 ft 458 kts 336°
2026-04-21 17:24 53.89995 -2.20946 36154 ft 457 kts 336°
2026-04-21 17:24 53.92938 -2.22976 36368 ft 455 kts 336°
2026-04-21 17:24 53.98836 -2.27043 36413 ft 461 kts 336°
2026-04-21 17:25 54.04809 -2.31155 36415 ft 465 kts 336°
2026-04-21 17:25 54.10811 -2.35310 36410 ft 466 kts 336°
2026-04-21 17:26 54.16693 -2.39850 36414 ft 463 kts 330°
2026-04-21 17:26 54.22323 -2.45264 36426 ft 465 kts 329°
2026-04-21 17:27 54.27851 -2.50765 36421 ft 462 kts 328°
2026-04-21 17:27 54.33421 -2.56357 36429 ft 466 kts 328°
2026-04-21 17:28 54.39022 -2.61979 36421 ft 464 kts 328°
2026-04-21 17:28 54.44597 -2.67581 36418 ft 465 kts 328°
2026-04-21 17:29 54.50207 -2.73233 36434 ft 469 kts 328°
2026-04-21 17:29 54.55806 -2.78892 36434 ft 467 kts 328°
2026-04-21 17:30 54.61429 -2.84595 36429 ft 469 kts 328°
2026-04-21 17:30 54.66090 -2.89337 36437 ft 466 kts 328°
2026-04-21 17:31 54.71680 -2.95043 36452 ft 468 kts 328°
2026-04-21 17:31 54.77314 -3.00814 36443 ft 471 kts 328°
2026-04-21 17:32 54.82883 -3.06787 36449 ft 471 kts 324°
2026-04-21 17:32 54.88212 -3.13454 36447 ft 473 kts 323°
2026-04-21 17:33 54.93487 -3.20232 36448 ft 469 kts 323°
2026-04-21 17:33 54.98694 -3.26975 36450 ft 471 kts 323°
2026-04-21 17:34 55.03975 -3.33826 36464 ft 475 kts 323°
2026-04-21 17:34 55.09264 -3.40702 36463 ft 473 kts 322°
2026-04-21 17:35 55.14535 -3.47573 36467 ft 474 kts 323°
2026-04-21 17:35 55.19829 -3.54498 36467 ft 476 kts 322°
2026-04-21 17:36 55.25118 -3.61441 36471 ft 476 kts 323°
2026-04-21 17:36 55.30411 -3.68413 36469 ft 476 kts 323°
2026-04-21 17:37 55.35716 -3.75424 36477 ft 479 kts 323°
2026-04-21 17:37 55.41030 -3.82472 36473 ft 476 kts 322°
2026-04-21 17:38 55.46313 -3.89503 36478 ft 477 kts 322°
2026-04-21 17:38 55.51623 -3.96593 36489 ft 481 kts 322°
2026-04-21 17:39 55.56959 -4.03744 36484 ft 481 kts 322°
2026-04-21 17:39 55.62280 -4.10901 36494 ft 481 kts 322°
2026-04-21 17:40 55.67611 -4.18094 36499 ft 483 kts 322°
2026-04-21 17:40 55.72944 -4.25317 36501 ft 482 kts 322°
2026-04-21 17:41 55.78286 -4.32576 36508 ft 485 kts 322°
2026-04-21 17:41 55.83650 -4.39893 36510 ft 486 kts 322°
2026-04-21 17:42 55.88995 -4.47250 36508 ft 485 kts 321°
2026-04-21 17:42 55.94133 -4.55033 36508 ft 485 kts 319°
2026-04-21 17:43 55.99197 -4.62969 36505 ft 485 kts 319°
2026-04-21 17:43 56.04287 -4.70882 36504 ft 485 kts 319°
2026-04-21 17:44 56.09391 -4.78762 36496 ft 483 kts 319°
2026-04-21 17:44 56.14485 -4.86633 36499 ft 484 kts 319°
2026-04-21 17:45 56.19550 -4.94487 36498 ft 485 kts 319°
2026-04-21 17:45 56.24657 -5.02440 36498 ft 488 kts 319°
2026-04-21 17:46 56.29788 -5.10460 36494 ft 489 kts 319°
2026-04-21 17:46 56.34917 -5.18507 36493 ft 489 kts 319°
2026-04-21 17:47 56.40029 -5.26557 36498 ft 486 kts 319°
2026-04-21 17:47 56.45114 -5.34594 36495 ft 485 kts 319°
2026-04-21 17:48 56.50190 -5.42647 36496 ft 488 kts 320°
2026-04-21 17:48 56.55314 -5.50806 36494 ft 492 kts 319°
2026-04-21 17:49 56.60453 -5.59021 36496 ft 492 kts 319°
2026-04-21 17:49 56.65578 -5.67245 36494 ft 491 kts 319°
2026-04-21 17:50 56.70696 -5.75486 36494 ft 491 kts 319°
2026-04-21 17:50 56.75816 -5.83764 36497 ft 493 kts 319°
2026-04-21 17:51 56.80947 -5.92087 36494 ft 494 kts 319°
2026-04-21 17:51 56.86077 -6.00443 36494 ft 494 kts 319°
2026-04-21 17:52 56.91203 -6.08828 36502 ft 494 kts 319°
2026-04-21 17:52 56.96288 -6.17175 36497 ft 494 kts 319°
2026-04-21 17:53 57.01406 -6.25609 36508 ft 494 kts 319°
2026-04-21 17:53 57.06517 -6.34064 36508 ft 494 kts 319°
2026-04-21 17:54 57.11623 -6.42542 36510 ft 494 kts 319°
2026-04-21 17:54 57.16723 -6.51044 36511 ft 495 kts 319°
2026-04-21 17:55 57.21818 -6.59573 36514 ft 495 kts 320°
2026-04-21 17:55 57.26928 -6.68156 36514 ft 497 kts 320°
2026-04-21 17:56 57.32042 -6.76783 36518 ft 497 kts 319°
2026-04-21 17:56 57.37154 -6.85437 36520 ft 498 kts 319°
2026-04-21 17:57 57.42259 -6.94114 36527 ft 498 kts 319°
2026-04-21 17:57 57.47361 -7.02824 36532 ft 498 kts 319°
2026-04-21 17:58 57.52455 -7.11555 36525 ft 498 kts 319°
2026-04-21 17:58 57.57508 -7.20250 36539 ft 498 kts 319°
2026-04-21 17:59 57.62594 -7.29034 36537 ft 499 kts 319°
2026-04-21 17:59 57.67680 -7.37854 36541 ft 499 kts 319°
2026-04-21 18:00 57.72762 -7.46703 36546 ft 499 kts 319°
2026-04-21 18:00 57.77832 -7.55568 36553 ft 499 kts 319°
2026-04-21 18:01 57.82788 -7.64681 36559 ft 499 kts 316°
2026-04-21 18:01 57.87617 -7.74058 36556 ft 499 kts 316°
2026-04-21 18:02 57.92447 -7.83439 36560 ft 499 kts 316°
2026-04-21 18:02 57.97293 -7.92798 36550 ft 499 kts 316°
2026-04-21 18:03 58.02147 -8.02176 36564 ft 501 kts 317°
2026-04-21 18:03 58.07019 -8.11618 36568 ft 502 kts 316°
2026-04-21 18:04 58.11851 -8.21030 36575 ft 502 kts 316°
2026-04-21 18:04 58.16703 -8.30521 36575 ft 501 kts 316°
2026-04-21 18:05 58.21549 -8.40040 36571 ft 502 kts 316°
2026-04-21 18:05 58.26390 -8.49590 36581 ft 502 kts 316°
2026-04-21 18:06 58.31225 -8.59166 36589 ft 502 kts 316°
2026-04-21 18:06 58.36051 -8.68766 36589 ft 502 kts 316°
2026-04-21 18:07 58.40871 -8.78395 36587 ft 502 kts 316°
2026-04-21 18:07 58.45686 -8.88056 36590 ft 503 kts 316°
2026-04-21 18:08 58.50498 -8.97752 36597 ft 503 kts 316°
2026-04-21 18:08 58.55304 -9.07478 36597 ft 503 kts 316°
2026-04-21 18:09 58.60102 -9.17226 36595 ft 503 kts 316°
2026-04-21 18:09 58.64893 -9.27004 36595 ft 503 kts 316°
2026-04-21 18:10 58.69678 -9.36812 36584 ft 503 kts 316°
2026-04-21 18:10 58.74455 -9.46646 36599 ft 503 kts 316°
2026-04-21 18:11 58.79225 -9.56508 36598 ft 504 kts 316°
2026-04-21 18:11 58.83969 -9.66356 36604 ft 504 kts 316°
2026-04-21 18:12 58.88734 -9.76292 36601 ft 504 kts 316°
2026-04-21 18:12 58.93498 -9.86270 36611 ft 504 kts 316°
2026-04-21 18:13 58.98245 -9.96254 36609 ft 503 kts 316°
2026-04-21 18:13 59.03388 -10.05344 36615 ft 499 kts 323°
2026-04-21 18:14 59.11407 -10.18264 36615 ft 499 kts 324°
2026-04-21 18:15 59.16731 -10.26791 36614 ft 499 kts 324°
2026-04-21 18:15 59.22084 -10.35421 36611 ft 499 kts 324°
2026-04-21 18:16 59.27430 -10.44093 36619 ft 499 kts 324°
2026-04-21 18:16 59.32767 -10.52791 36627 ft 499 kts 324°
2026-04-21 18:17 59.38098 -10.61515 36627 ft 499 kts 324°
2026-04-21 18:17 59.43421 -10.70264 36626 ft 499 kts 324°
2026-04-21 18:18 59.48746 -10.79054 36626 ft 499 kts 324°
2026-04-21 18:18 59.54055 -10.87853 36630 ft 499 kts 324°
2026-04-21 18:19 59.58458 -10.95178 36632 ft 499 kts 324°
2026-04-21 18:19 59.63756 -11.04027 36633 ft 499 kts 324°
2026-04-21 18:20 59.69046 -11.12901 36632 ft 499 kts 324°
2026-04-21 18:20 59.74331 -11.21806 36633 ft 498 kts 324°
2026-04-21 18:21 59.79611 -11.30739 36636 ft 499 kts 324°
2026-04-21 18:21 59.84887 -11.39704 36641 ft 499 kts 324°
2026-04-21 18:22 59.90159 -11.48704 36640 ft 499 kts 323°
2026-04-21 18:22 59.95422 -11.57726 36621 ft 499 kts 323°
2026-04-21 18:23 60.00644 -11.66715 36648 ft 499 kts 323°
2026-04-21 18:23 60.05890 -11.75787 36646 ft 498 kts 323°
2026-04-21 18:24 60.11128 -11.84883 36651 ft 498 kts 323°
2026-04-21 18:24 60.16364 -11.94016 36650 ft 498 kts 323°
2026-04-21 18:25 60.21589 -12.03171 36642 ft 498 kts 323°
2026-04-21 18:25 60.26808 -12.12353 36657 ft 498 kts 322°
2026-04-21 18:26 60.32016 -12.21559 36655 ft 498 kts 322°
2026-04-21 18:26 60.37219 -12.30795 36652 ft 498 kts 322°
2026-04-21 18:27 60.42415 -12.40061 36659 ft 498 kts 322°
2026-04-21 18:27 60.47606 -12.49358 36664 ft 498 kts 322°
2026-04-21 18:28 60.52784 -12.58674 36650 ft 497 kts 322°
2026-04-21 18:28 60.57952 -12.68014 36669 ft 497 kts 322°
2026-04-21 18:29 60.63115 -12.77386 36653 ft 497 kts 322°
2026-04-21 18:29 60.68273 -12.86790 36669 ft 497 kts 322°
2026-04-21 18:30 60.73423 -12.96222 36662 ft 497 kts 321°
2026-04-21 18:30 60.78567 -13.05685 36667 ft 497 kts 321°
2026-04-21 18:31 60.83696 -13.15164 36669 ft 497 kts 321°
2026-04-21 18:31 60.88821 -13.24678 36669 ft 496 kts 321°
2026-04-21 18:32 60.93901 -13.34151 36669 ft 496 kts 321°
2026-04-21 18:32 60.99010 -13.43722 36669 ft 497 kts 321°
2026-04-21 18:33 61.04113 -13.53326 36669 ft 497 kts 321°
2026-04-21 18:33 61.09210 -13.62962 36669 ft 497 kts 321°
2026-04-21 18:34 61.14297 -13.72623 36670 ft 497 kts 321°
2026-04-21 18:34 61.19385 -13.82328 36669 ft 497 kts 321°
2026-04-21 18:35 61.23637 -13.90475 36669 ft 497 kts 320°
2026-04-21 18:35 61.29533 -14.01823 36672 ft 497 kts 320°
2026-04-21 18:36 61.34603 -14.11631 36673 ft 497 kts 320°
2026-04-21 18:36 61.39662 -14.21462 36674 ft 497 kts 320°
2026-04-21 18:37 61.44706 -14.31310 36677 ft 496 kts 320°
2026-04-21 18:37 61.49743 -14.41189 36675 ft 497 kts 320°
2026-04-21 18:38 61.54774 -14.51104 36680 ft 497 kts 320°
2026-04-21 18:38 61.59797 -14.61048 36680 ft 497 kts 320°
2026-04-21 18:39 61.64817 -14.71034 36679 ft 497 kts 320°
2026-04-21 18:39 61.69830 -14.81053 36680 ft 497 kts 319°
2026-04-21 18:40 61.74839 -14.91110 36677 ft 497 kts 319°
2026-04-21 18:40 61.78997 -14.99496 36680 ft 497 kts 319°
2026-04-21 18:41 61.84802 -15.11259 36681 ft 497 kts 319°
2026-04-21 18:41 61.89791 -15.21419 36680 ft 497 kts 319°
2026-04-21 18:42 61.94768 -15.31605 36679 ft 497 kts 319°
2026-04-21 18:42 61.99746 -15.41840 36697 ft 498 kts 319°
2026-04-21 18:43 62.04718 -15.52113 36674 ft 498 kts 319°
2026-04-21 18:43 62.09680 -15.62413 36692 ft 498 kts 319°
2026-04-21 18:44 62.14633 -15.72746 36675 ft 498 kts 319°
2026-04-21 18:44 62.19583 -15.83123 36676 ft 498 kts 319°
2026-04-21 18:45 62.24529 -15.93540 36678 ft 499 kts 319°
2026-04-21 18:45 62.29470 -16.03997 36682 ft 499 kts 319°
2026-04-21 18:46 62.34411 -16.14507 36679 ft 499 kts 318°
2026-04-21 18:46 62.39342 -16.25047 36680 ft 499 kts 318°
2026-04-21 18:47 62.44268 -16.35628 36677 ft 498 kts 318°
2026-04-21 18:47 62.49162 -16.46195 36662 ft 497 kts 318°
2026-04-21 18:48 62.54055 -16.56808 36669 ft 498 kts 318°
2026-04-21 18:48 62.58943 -16.67461 36670 ft 498 kts 318°
2026-04-21 18:49 62.63824 -16.78152 36669 ft 498 kts 318°
2026-04-21 18:49 62.67877 -16.87073 36669 ft 498 kts 318°
2026-04-21 18:50 62.73566 -16.99656 36656 ft 499 kts 318°
2026-04-21 18:50 62.78443 -17.10499 36664 ft 502 kts 318°
2026-04-21 18:51 62.83328 -17.21415 36653 ft 502 kts 317°
2026-04-21 18:51 62.88170 -17.32293 36653 ft 502 kts 317°
2026-04-21 18:52 62.93040 -17.43290 36653 ft 502 kts 317°
2026-04-21 18:52 62.97893 -17.54303 36643 ft 500 kts 317°
2026-04-21 18:53 63.02730 -17.65334 36648 ft 501 kts 317°
2026-04-21 18:53 63.07565 -17.76417 36645 ft 502 kts 317°
2026-04-21 18:54 63.12397 -17.87549 36641 ft 502 kts 317°
2026-04-21 18:54 63.17213 -17.98704 36640 ft 502 kts 317°
2026-04-21 18:55 63.21223 -18.08036 36605 ft 502 kts 317°
2026-04-21 18:55 63.26862 -18.21222 36631 ft 506 kts 317°
2026-04-21 18:56 63.31694 -18.32586 36626 ft 506 kts 317°
2026-04-21 18:56 63.36484 -18.43916 36627 ft 506 kts 316°
2026-04-21 18:57 63.41305 -18.55377 36622 ft 506 kts 316°
2026-04-21 18:57 63.46115 -18.66869 36619 ft 506 kts 316°
2026-04-21 18:58 63.50902 -18.78372 36629 ft 503 kts 316°
2026-04-21 18:58 63.55658 -18.89860 36632 ft 501 kts 316°
2026-04-21 18:59 63.60391 -19.01348 36630 ft 501 kts 316°
2026-04-21 18:59 63.65118 -19.12881 36630 ft 501 kts 316°
2026-04-21 19:00 63.69838 -19.24459 36611 ft 502 kts 316°
2026-04-21 19:00 63.74577 -19.36146 36643 ft 508 kts 315°
2026-04-21 19:01 63.79335 -19.47945 36642 ft 507 kts 315°
2026-04-21 19:01 63.84078 -19.59774 36647 ft 507 kts 315°
2026-04-21 19:02 63.88783 -19.71565 36642 ft 507 kts 315°
2026-04-21 19:02 63.93504 -19.83463 36643 ft 507 kts 315°
2026-04-21 19:03 63.98233 -19.95445 36639 ft 512 kts 315°
2026-04-21 19:03 64.02953 -20.07611 36642 ft 509 kts 313°
2026-04-21 19:04 64.07496 -20.19958 36640 ft 507 kts 313°
2026-04-21 19:04 64.12013 -20.32366 36636 ft 507 kts 313°
2026-04-21 19:05 64.16533 -20.44766 36639 ft 507 kts 313°
2026-04-21 19:05 64.21065 -20.57212 36646 ft 509 kts 312°
2026-04-21 19:06 64.25610 -20.69757 36640 ft 511 kts 312°
2026-04-21 19:06 64.30148 -20.82356 36655 ft 511 kts 312°
2026-04-21 19:07 64.33913 -20.92864 36656 ft 511 kts 312°
2026-04-21 19:07 64.38426 -21.05532 36667 ft 511 kts 312°
2026-04-21 19:08 64.42931 -21.18250 36670 ft 512 kts 311°
2026-04-21 19:08 64.47433 -21.31030 36682 ft 511 kts 311°
2026-04-21 19:09 64.51905 -21.43801 36679 ft 509 kts 311°
2026-04-21 19:09 64.56325 -21.56496 36681 ft 508 kts 311°
2026-04-21 19:10 64.60764 -21.69317 36683 ft 508 kts 311°
2026-04-21 19:10 64.65188 -21.82166 36671 ft 508 kts 310°
2026-04-21 19:11 64.69610 -21.95085 36684 ft 509 kts 310°
2026-04-21 19:11 64.74019 -22.08042 36680 ft 509 kts 310°
2026-04-21 19:12 64.78422 -22.21057 36679 ft 509 kts 310°
2026-04-21 19:12 64.82810 -22.34101 36680 ft 509 kts 310°
2026-04-21 19:13 64.87187 -22.47190 36682 ft 509 kts 310°
2026-04-21 19:13 64.91558 -22.60334 36683 ft 510 kts 309°
2026-04-21 19:14 64.95906 -22.73500 36677 ft 507 kts 309°
2026-04-21 19:14 65.00230 -22.86668 36677 ft 507 kts 309°
2026-04-21 19:15 65.04540 -22.99869 36677 ft 507 kts 309°
2026-04-21 19:15 65.08836 -23.13103 36677 ft 507 kts 308°
2026-04-21 19:16 65.13120 -23.26374 36674 ft 507 kts 308°
2026-04-21 19:16 65.17394 -23.39701 36674 ft 507 kts 308°
2026-04-21 19:17 65.23752 -23.59675 36674 ft 507 kts 308°
2026-04-21 19:17 65.27999 -23.73114 36674 ft 507 kts 307°
2026-04-21 19:18 65.32231 -23.86586 36671 ft 507 kts 307°
2026-04-21 19:18 65.36455 -24.00113 36669 ft 507 kts 307°
2026-04-21 19:19 65.40659 -24.13663 36667 ft 504 kts 307°
2026-04-21 19:19 65.44822 -24.27165 36664 ft 502 kts 306°
2026-04-21 19:20 65.48970 -24.40698 36656 ft 502 kts 306°
2026-04-21 19:20 65.53105 -24.54270 36661 ft 502 kts 306°
2026-04-21 19:21 65.57227 -24.67877 36652 ft 502 kts 306°
2026-04-21 19:21 65.61339 -24.81539 36650 ft 502 kts 306°
2026-04-21 19:22 65.65439 -24.95249 36639 ft 502 kts 306°
2026-04-21 19:22 65.69530 -25.09011 36638 ft 502 kts 305°
2026-04-21 19:23 65.73576 -25.22708 36628 ft 502 kts 305°
2026-04-21 19:23 65.77643 -25.36558 36632 ft 502 kts 305°
2026-04-21 19:24 65.81692 -25.50433 36630 ft 502 kts 305°
2026-04-21 19:24 65.85733 -25.64372 36618 ft 503 kts 305°
2026-04-21 19:25 65.89742 -25.78281 36625 ft 501 kts 305°
2026-04-21 19:25 65.93741 -25.92248 36619 ft 499 kts 305°
2026-04-21 19:26 65.97701 -26.06163 36623 ft 498 kts 305°
2026-04-21 19:26 66.01665 -26.20186 36608 ft 499 kts 304°
2026-04-21 19:27 66.05609 -26.34219 36609 ft 500 kts 304°
2026-04-21 19:27 66.09550 -26.48330 36599 ft 500 kts 304°
2026-04-21 19:28 66.13473 -26.62478 36596 ft 498 kts 303°
2026-04-21 19:28 66.17376 -26.76642 36592 ft 498 kts 303°
2026-04-21 19:29 66.21239 -26.90741 36594 ft 496 kts 303°
2026-04-21 19:29 66.25128 -27.05002 36590 ft 498 kts 302°
2026-04-21 19:30 66.28936 -27.19101 36582 ft 491 kts 302°
2026-04-21 19:30 66.32720 -27.33164 36584 ft 489 kts 302°
2026-04-21 19:31 66.36483 -27.47276 36570 ft 489 kts 302°
2026-04-21 19:31 66.40225 -27.61405 36570 ft 488 kts 302°
2026-04-21 19:32 66.43974 -27.75629 36560 ft 489 kts 302°
2026-04-21 19:32 66.47707 -27.89887 36559 ft 490 kts 301°
2026-04-21 19:33 66.51435 -28.04199 36549 ft 490 kts 300°
2026-04-21 19:33 66.55139 -28.18558 36549 ft 490 kts 301°
2026-04-21 19:34 66.58816 -28.32849 36538 ft 490 kts 300°
2026-04-21 19:34 66.62505 -28.47284 36553 ft 491 kts 300°
2026-04-21 19:35 66.68008 -28.69078 36527 ft 491 kts 301°
2026-04-21 19:36 66.71682 -28.83653 36527 ft 492 kts 300°
2026-04-21 19:36 66.75318 -28.98285 36516 ft 491 kts 300°
2026-04-21 19:37 66.78952 -29.12927 36517 ft 491 kts 300°
2026-04-21 19:37 66.82579 -29.27627 36518 ft 492 kts 298°
2026-04-21 19:38 66.86173 -29.42406 36514 ft 492 kts 299°
2026-04-21 19:38 66.89170 -29.54734 36503 ft 493 kts 299°
2026-04-21 19:39 66.93372 -29.72142 36489 ft 493 kts 299°
2026-04-21 19:39 66.96924 -29.86992 36489 ft 493 kts 299°
2026-04-21 19:40 67.00488 -30.01948 36500 ft 493 kts 298°
2026-04-21 19:40 67.04141 -30.16810 36498 ft 494 kts 300°
2026-04-21 19:41 67.07858 -30.31629 36494 ft 494 kts 300°
2026-04-21 19:41 67.11544 -30.46480 36482 ft 492 kts 300°
2026-04-21 19:42 67.15190 -30.61368 36474 ft 492 kts 300°
2026-04-21 19:42 67.18818 -30.76313 36476 ft 492 kts 299°
2026-04-21 19:43 67.22427 -30.91287 36473 ft 492 kts 300°
2026-04-21 19:43 67.26025 -31.06313 36466 ft 492 kts 300°
2026-04-21 19:44 67.29612 -31.21392 36462 ft 492 kts 299°
2026-04-21 19:44 67.33183 -31.36508 36457 ft 492 kts 299°
2026-04-21 19:45 67.36742 -31.51677 36458 ft 492 kts 299°
2026-04-21 19:45 67.40283 -31.66881 36451 ft 492 kts 299°
2026-04-21 19:46 67.43813 -31.82140 36460 ft 492 kts 299°
2026-04-21 19:46 67.47303 -31.97337 36448 ft 492 kts 298°
2026-04-21 19:47 67.50809 -32.12707 36452 ft 492 kts 299°
2026-04-21 19:47 67.54282 -32.28039 36447 ft 489 kts 298°
2026-04-21 19:48 67.57730 -32.43376 36445 ft 489 kts 298°
2026-04-21 19:48 67.61165 -32.58766 36442 ft 489 kts 298°
2026-04-21 19:49 67.64582 -32.74186 36420 ft 489 kts 298°
2026-04-21 19:49 67.67991 -32.89677 36434 ft 489 kts 298°
2026-04-21 19:50 67.70812 -33.02579 36413 ft 489 kts 298°
2026-04-21 19:50 67.74763 -33.20783 36406 ft 489 kts 298°
2026-04-21 19:51 67.78127 -33.36406 36400 ft 489 kts 298°
2026-04-21 19:51 67.81474 -33.52066 36404 ft 489 kts 298°
2026-04-21 19:52 67.84807 -33.67770 36387 ft 489 kts 297°
2026-04-21 19:52 67.88125 -33.83523 36399 ft 489 kts 297°
2026-04-21 19:53 67.91404 -33.99206 36397 ft 488 kts 298°
2026-04-21 19:53 67.94666 -34.14920 36397 ft 484 kts 298°
2026-04-21 19:54 67.97898 -34.30618 36398 ft 483 kts 298°
2026-04-21 19:54 68.01111 -34.46336 36400 ft 483 kts 298°
2026-04-21 19:55 68.04311 -34.62104 36404 ft 483 kts 298°
2026-04-21 19:55 68.06982 -34.75354 36385 ft 483 kts 298°
2026-04-21 19:56 68.10156 -34.91206 36391 ft 483 kts 298°
2026-04-21 19:56 68.13311 -35.07090 36390 ft 482 kts 297°
2026-04-21 19:57 68.16446 -35.22990 36409 ft 482 kts 297°
2026-04-21 19:57 68.19569 -35.38956 36406 ft 482 kts 298°
2026-04-21 19:58 68.22642 -35.54790 36436 ft 476 kts 298°
2026-04-21 19:58 68.25682 -35.70561 36438 ft 471 kts 298°
2026-04-21 19:59 68.28675 -35.86207 36439 ft 468 kts 298°
2026-04-21 19:59 68.31607 -36.01652 36446 ft 460 kts 298°
2026-04-21 20:00 68.34511 -36.17056 36442 ft 461 kts 297°
2026-04-21 20:00 68.37419 -36.32594 36471 ft 462 kts 297°
2026-04-21 20:01 68.40323 -36.48227 36477 ft 468 kts 297°
2026-04-21 20:01 68.43242 -36.64086 36479 ft 471 kts 297°
2026-04-21 20:02 68.46122 -36.79863 36478 ft 462 kts 296°
2026-04-21 20:02 68.48964 -36.95536 36474 ft 460 kts 296°
2026-04-21 20:03 68.51802 -37.11264 36487 ft 466 kts 296°
2026-04-21 20:03 68.54665 -37.27296 36488 ft 473 kts 296°
2026-04-21 20:04 68.57529 -37.43465 36471 ft 472 kts 296°
2026-04-21 20:04 68.60365 -37.59608 36489 ft 468 kts 295°
2026-04-21 20:05 68.63152 -37.75596 36472 ft 463 kts 295°
2026-04-21 20:05 68.65911 -37.91529 36494 ft 463 kts 295°
2026-04-21 20:06 68.68684 -38.07677 36496 ft 471 kts 295°
2026-04-21 20:06 68.71477 -38.24078 36495 ft 474 kts 294°
2026-04-21 20:07 68.74265 -38.40589 36498 ft 476 kts 294°
2026-04-21 20:07 68.77018 -38.57035 36493 ft 475 kts 294°
2026-04-21 20:08 68.79760 -38.73602 36499 ft 472 kts 293°
2026-04-21 20:08 68.82448 -38.89989 36497 ft 466 kts 293°
2026-04-21 20:09 68.85121 -39.06277 36489 ft 465 kts 293°
2026-04-21 20:09 68.87780 -39.22621 36484 ft 466 kts 292°
2026-04-21 20:10 68.90443 -39.39093 36472 ft 471 kts 292°
2026-04-21 20:10 68.93089 -39.55866 36479 ft 476 kts 292°
2026-04-21 20:11 68.95778 -39.72665 36465 ft 475 kts 292°
2026-04-21 20:11 68.98425 -39.89523 36482 ft 476 kts 292°
2026-04-21 20:12 69.01029 -40.06373 36481 ft 470 kts 289°
2026-04-21 20:12 69.03284 -40.23374 36467 ft 473 kts 287°
2026-04-21 20:13 69.05488 -40.40805 36473 ft 476 kts 287°
2026-04-21 20:13 69.07727 -40.58237 36467 ft 476 kts 287°
2026-04-21 20:14 69.09983 -40.75668 36466 ft 477 kts 287°
2026-04-21 20:14 69.12232 -40.93108 36466 ft 475 kts 286°
2026-04-21 20:15 69.14444 -41.10592 36463 ft 476 kts 287°
2026-04-21 20:15 69.16663 -41.28129 36472 ft 476 kts 286°
2026-04-21 20:16 69.18848 -41.45700 36464 ft 477 kts 286°
2026-04-21 20:16 69.21017 -41.63336 36466 ft 477 kts 286°
2026-04-21 20:17 69.23170 -41.80997 36457 ft 477 kts 286°
2026-04-21 20:17 69.25307 -41.98694 36462 ft 477 kts 285°
2026-04-21 20:18 69.27068 -42.13410 36455 ft 476 kts 285°
2026-04-21 20:18 69.29523 -42.34144 36453 ft 476 kts 284°
2026-04-21 20:19 69.31602 -42.51927 36449 ft 476 kts 284°
2026-04-21 20:19 69.33647 -42.69627 36438 ft 476 kts 284°
2026-04-21 20:20 69.35687 -42.87456 36435 ft 476 kts 284°
2026-04-21 20:20 69.37712 -43.05339 36435 ft 476 kts 284°
2026-04-21 20:21 69.39719 -43.23266 36425 ft 476 kts 283°
2026-04-21 20:21 69.41709 -43.41229 36425 ft 476 kts 283°
2026-04-21 20:22 69.43679 -43.59219 36411 ft 476 kts 283°
2026-04-21 20:22 69.46588 -43.86164 36412 ft 476 kts 283°
2026-04-21 20:23 69.48510 -44.04214 36421 ft 476 kts 282°
2026-04-21 20:23 69.50414 -44.22297 36411 ft 476 kts 282°
2026-04-21 20:24 69.52297 -44.40413 36433 ft 476 kts 281°
2026-04-21 20:24 69.54165 -44.58584 36403 ft 476 kts 281°
2026-04-21 20:25 69.56010 -44.76757 36398 ft 475 kts 281°
2026-04-21 20:25 69.57827 -44.94869 36392 ft 475 kts 280°
2026-04-21 20:26 69.59635 -45.13104 36390 ft 475 kts 280°
2026-04-21 20:26 69.61420 -45.31340 36379 ft 475 kts 280°
2026-04-21 20:27 69.63190 -45.49633 36376 ft 475 kts 280°
2026-04-21 20:27 69.64932 -45.67816 36376 ft 474 kts 279°
2026-04-21 20:28 69.66656 -45.86096 36369 ft 473 kts 279°
2026-04-21 20:28 69.68361 -46.04427 36368 ft 473 kts 278°
2026-04-21 20:29 69.70038 -46.22676 36352 ft 473 kts 278°
2026-04-21 20:29 69.71705 -46.41044 36346 ft 473 kts 277°
2026-04-21 20:30 69.73350 -46.59398 36349 ft 473 kts 277°
2026-04-21 20:30 69.74978 -46.77802 36347 ft 472 kts 276°
2026-04-21 20:31 69.76573 -46.96077 36343 ft 472 kts 276°
2026-04-21 20:31 69.78157 -47.14498 36330 ft 472 kts 276°
2026-04-21 20:32 69.79723 -47.32949 36331 ft 472 kts 276°
2026-04-21 20:32 69.81271 -47.51433 36330 ft 472 kts 276°
2026-04-21 20:33 69.82787 -47.69800 36320 ft 471 kts 276°
2026-04-21 20:33 69.84297 -47.88307 36327 ft 471 kts 275°
2026-04-21 20:34 69.85784 -48.06820 36301 ft 471 kts 275°
2026-04-21 20:34 69.87249 -48.25368 36299 ft 471 kts 274°
2026-04-21 20:35 69.88694 -48.43930 36299 ft 470 kts 274°
2026-04-21 20:35 69.90109 -48.62369 36287 ft 470 kts 274°
2026-04-21 20:36 69.91517 -48.80978 36286 ft 470 kts 274°
2026-04-21 20:36 69.92906 -48.99610 36312 ft 470 kts 273°
2026-04-21 20:37 69.94263 -49.18080 36277 ft 469 kts 273°
2026-04-21 20:37 69.95606 -49.36701 36275 ft 468 kts 272°
2026-04-21 20:38 69.96927 -49.55290 36265 ft 468 kts 272°
2026-04-21 20:38 69.98229 -49.73912 36265 ft 468 kts 272°
2026-04-21 20:39 69.99505 -49.92444 36431 ft 466 kts 272°
2026-04-21 20:39 69.99999 -50.01711 36690 ft 458 kts 267°
2026-04-21 20:39 70.00315 -50.10940 36891 ft 456 kts 266°
2026-04-21 20:40 70.00593 -50.20167 37202 ft 453 kts 266°
2026-04-21 20:40 70.00842 -50.29229 37427 ft 452 kts 265°
2026-04-21 20:40 70.01306 -50.47623 37550 ft 455 kts 265°
2026-04-21 20:41 70.01529 -50.56851 37680 ft 455 kts 265°
2026-04-21 20:41 70.01752 -50.66094 37814 ft 455 kts 265°
2026-04-21 20:41 70.01970 -50.75326 37968 ft 455 kts 265°
2026-04-21 20:41 70.02187 -50.84565 38105 ft 455 kts 265°
2026-04-21 20:42 70.02539 -50.99939 38247 ft 457 kts 265°
2026-04-21 20:42 70.03011 -51.21646 38244 ft 461 kts 265°
2026-04-21 20:43 70.03340 -51.37350 38233 ft 461 kts 265°
2026-04-21 20:43 70.03713 -51.55943 38239 ft 460 kts 265°
2026-04-21 20:44 70.04068 -51.74711 38246 ft 460 kts 264°
2026-04-21 20:44 70.04396 -51.93330 38227 ft 460 kts 264°
2026-04-21 20:45 70.04705 -52.12032 38234 ft 460 kts 264°
2026-04-21 20:45 70.04998 -52.30777 38234 ft 460 kts 263°
2026-04-21 20:46 70.05269 -52.49506 38228 ft 460 kts 263°
2026-04-21 20:46 70.05521 -52.68120 38294 ft 460 kts 263°
2026-04-21 20:47 70.05758 -52.86870 38222 ft 459 kts 263°
2026-04-21 20:47 70.05971 -53.05551 38210 ft 458 kts 263°
2026-04-21 20:48 70.06161 -53.24121 38225 ft 458 kts 262°
2026-04-21 20:48 70.06333 -53.42769 38233 ft 458 kts 262°
2026-04-21 20:49 70.06490 -53.61439 38224 ft 457 kts 262°
2026-04-21 20:49 70.06624 -53.80006 38234 ft 458 kts 262°
2026-04-21 20:50 70.06739 -53.98666 38320 ft 457 kts 262°
2026-04-21 20:50 70.06833 -54.17467 38245 ft 464 kts 261°
2026-04-21 20:51 70.06906 -54.36533 38256 ft 469 kts 261°
2026-04-21 20:51 70.06964 -54.55700 38269 ft 470 kts 261°
2026-04-21 20:52 70.07001 -54.74833 38272 ft 469 kts 261°
2026-04-21 20:52 70.07022 -54.93954 38270 ft 469 kts 261°
2026-04-21 20:53 70.07021 -55.12940 38281 ft 468 kts 260°
2026-04-21 20:53 70.06997 -55.32070 38281 ft 468 kts 260°
2026-04-21 20:54 70.06953 -55.51184 38287 ft 468 kts 260°
2026-04-21 20:54 70.06888 -55.70272 38287 ft 468 kts 259°
2026-04-21 20:55 70.06803 -55.89230 38293 ft 468 kts 259°
2026-04-21 20:55 70.06697 -56.08345 38300 ft 470 kts 259°
2026-04-21 20:56 70.06570 -56.27518 38287 ft 470 kts 259°
2026-04-21 20:56 70.06425 -56.46682 38291 ft 470 kts 258°
2026-04-21 20:57 70.06256 -56.65857 38305 ft 472 kts 258°
2026-04-21 20:57 70.06063 -56.85179 38297 ft 474 kts 258°
2026-04-21 20:58 70.05855 -57.04414 38292 ft 474 kts 257°
2026-04-21 20:58 70.05626 -57.23714 38297 ft 474 kts 257°
2026-04-21 20:59 70.05375 -57.42991 38314 ft 473 kts 257°
2026-04-21 20:59 70.05101 -57.62282 38317 ft 473 kts 257°
2026-04-21 21:00 70.04806 -57.81589 38319 ft 475 kts 257°
2026-04-21 21:00 70.04490 -58.00855 38316 ft 476 kts 257°
2026-04-21 21:01 70.04156 -58.20208 38317 ft 475 kts 257°
2026-04-21 21:01 70.03800 -58.39527 38317 ft 475 kts 257°
2026-04-21 21:02 70.03421 -58.58852 38317 ft 475 kts 256°
2026-04-21 21:02 70.03025 -58.78004 38317 ft 474 kts 256°
2026-04-21 21:03 70.02605 -58.97307 38317 ft 474 kts 256°
2026-04-21 21:03 70.02165 -59.16551 38352 ft 474 kts 257°
2026-04-21 21:04 70.01711 -59.35611 38317 ft 471 kts 256°
2026-04-21 21:04 70.01234 -59.54703 38326 ft 471 kts 257°
2026-04-21 21:05 70.00734 -59.73815 38317 ft 472 kts 256°
2026-04-21 21:05 70.00217 -59.92832 38317 ft 471 kts 256°
2026-04-21 21:06 69.99732 -60.11982 38319 ft 473 kts 258°
2026-04-21 21:06 69.99437 -60.31251 38320 ft 475 kts 258°
2026-04-21 21:07 69.99149 -60.50523 38321 ft 474 kts 258°
2026-04-21 21:07 69.98811 -60.69621 38317 ft 474 kts 258°
2026-04-21 21:08 69.98431 -60.88853 38317 ft 473 kts 258°
2026-04-21 21:08 69.98027 -61.08028 38315 ft 473 kts 258°
2026-04-21 21:09 69.97603 -61.27197 38311 ft 473 kts 257°
2026-04-21 21:09 69.97159 -61.46369 38319 ft 473 kts 257°
2026-04-21 21:10 69.96697 -61.65447 38355 ft 475 kts 258°
2026-04-21 21:10 69.96210 -61.84690 38311 ft 475 kts 257°
2026-04-21 21:11 69.95703 -62.03919 38311 ft 475 kts 257°
2026-04-21 21:11 69.95176 -62.23143 38308 ft 475 kts 257°
2026-04-21 21:12 69.94631 -62.42221 38308 ft 475 kts 257°
2026-04-21 21:12 69.94062 -62.61401 38300 ft 474 kts 257°
2026-04-21 21:13 69.93473 -62.80567 38300 ft 474 kts 257°
2026-04-21 21:13 69.92863 -62.99711 38311 ft 474 kts 257°
2026-04-21 21:14 69.92237 -63.18713 38298 ft 475 kts 256°
2026-04-21 21:14 69.91402 -63.37714 38290 ft 470 kts 252°
2026-04-21 21:15 69.90187 -63.56357 38308 ft 469 kts 251°
2026-04-21 21:15 69.88947 -63.74982 38290 ft 469 kts 252°
2026-04-21 21:16 69.87756 -63.93514 38290 ft 469 kts 252°
2026-04-21 21:16 69.86569 -64.12147 38292 ft 469 kts 252°
2026-04-21 21:17 69.85365 -64.30779 38292 ft 469 kts 252°
2026-04-21 21:17 69.84142 -64.49365 38281 ft 469 kts 252°
2026-04-21 21:18 69.82896 -64.67938 38282 ft 469 kts 252°
2026-04-21 21:18 69.81630 -64.86487 38285 ft 469 kts 251°
2026-04-21 21:19 69.80354 -65.04895 38293 ft 469 kts 251°
2026-04-21 21:19 69.79046 -65.23446 38278 ft 469 kts 251°
2026-04-21 21:20 69.77729 -65.41836 38349 ft 469 kts 251°
2026-04-21 21:20 69.76385 -65.60316 38277 ft 470 kts 251°
2026-04-21 21:21 69.75019 -65.78795 38269 ft 470 kts 251°
2026-04-21 21:21 69.73637 -65.97222 38274 ft 470 kts 251°
2026-04-21 21:22 69.72235 -66.15628 38276 ft 470 kts 251°
2026-04-21 21:22 69.70824 -66.33884 38268 ft 469 kts 250°
2026-04-21 21:23 69.69384 -66.52238 38270 ft 469 kts 250°
2026-04-21 21:23 69.67927 -66.70541 38305 ft 470 kts 250°
2026-04-21 21:24 69.66448 -66.88842 38263 ft 470 kts 250°
2026-04-21 21:24 69.64947 -67.07165 38265 ft 470 kts 250°
2026-04-21 21:25 69.63430 -67.25443 38261 ft 470 kts 250°
2026-04-21 21:25 69.61903 -67.43573 38262 ft 470 kts 250°
2026-04-21 21:26 69.60345 -67.61815 38264 ft 470 kts 249°
2026-04-21 21:26 69.58782 -67.79873 38259 ft 470 kts 249°
2026-04-21 21:27 69.57190 -67.98029 38258 ft 469 kts 249°
2026-04-21 21:27 69.55581 -68.16129 38261 ft 469 kts 249°
2026-04-21 21:28 69.53951 -68.34228 38283 ft 469 kts 249°
2026-04-21 21:29 69.51472 -68.61319 38277 ft 470 kts 249°
2026-04-21 21:29 69.49805 -68.79256 38277 ft 470 kts 249°
2026-04-21 21:30 69.48113 -68.97234 38295 ft 469 kts 248°
2026-04-21 21:30 69.46400 -69.15194 38375 ft 470 kts 248°
2026-04-21 21:31 69.44668 -69.33133 38330 ft 471 kts 248°
2026-04-21 21:31 69.43208 -69.48074 38320 ft 471 kts 248°
2026-04-21 21:32 69.41439 -69.66012 38358 ft 471 kts 248°
2026-04-21 21:32 69.39651 -69.83919 38366 ft 470 kts 248°
2026-04-21 21:33 69.37856 -70.01683 38377 ft 471 kts 248°
2026-04-21 21:33 69.36027 -70.19557 38379 ft 471 kts 248°
2026-04-21 21:34 69.34180 -70.37407 38456 ft 471 kts 248°
2026-04-21 21:34 69.32321 -70.55157 38395 ft 473 kts 248°
2026-04-21 21:35 69.30430 -70.73004 38383 ft 473 kts 247°
2026-04-21 21:35 69.28535 -70.90707 38408 ft 473 kts 247°
2026-04-21 21:36 69.26610 -71.08482 38407 ft 473 kts 247°
2026-04-21 21:36 69.24669 -71.26207 38395 ft 473 kts 247°
2026-04-21 21:37 69.22708 -71.43914 38412 ft 473 kts 246°
2026-04-21 21:37 69.20741 -71.61468 38443 ft 473 kts 247°
2026-04-21 21:38 69.18740 -71.79137 38400 ft 473 kts 247°
2026-04-21 21:38 69.16723 -71.96771 38403 ft 474 kts 246°
2026-04-21 21:39 69.14688 -72.14367 38406 ft 474 kts 246°
2026-04-21 21:39 69.12632 -72.31957 38406 ft 474 kts 246°
2026-04-21 21:40 69.10573 -72.49375 38405 ft 473 kts 246°
2026-04-21 21:40 69.08484 -72.66875 38406 ft 473 kts 246°
2026-04-21 21:41 69.06376 -72.84347 38423 ft 473 kts 246°
2026-04-21 21:41 69.04246 -73.01818 38407 ft 474 kts 246°
2026-04-21 21:42 69.02115 -73.19124 38405 ft 475 kts 246°
2026-04-21 21:42 68.99946 -73.36558 38406 ft 475 kts 246°
2026-04-21 21:43 68.97758 -73.53965 38406 ft 475 kts 246°
2026-04-21 21:43 68.95566 -73.71238 38405 ft 475 kts 246°
2026-04-21 21:44 68.93345 -73.88565 38408 ft 475 kts 245°
2026-04-21 21:44 68.91110 -74.05834 38404 ft 476 kts 245°
2026-04-21 21:45 68.88851 -74.23103 38403 ft 476 kts 245°
2026-04-21 21:45 68.86571 -74.40373 38398 ft 476 kts 245°
2026-04-21 21:46 68.84275 -74.57595 38397 ft 476 kts 245°
2026-04-21 21:46 68.81961 -74.74783 38399 ft 477 kts 245°
2026-04-21 21:47 68.79639 -74.91870 38399 ft 477 kts 245°
2026-04-21 21:47 68.77287 -75.09012 38443 ft 477 kts 245°
2026-04-21 21:48 68.74915 -75.26142 38397 ft 478 kts 245°
2026-04-21 21:48 68.72538 -75.43147 38394 ft 478 kts 245°
2026-04-21 21:49 68.70130 -75.60213 38394 ft 478 kts 245°
2026-04-21 21:49 68.67722 -75.77125 38390 ft 477 kts 245°
2026-04-21 21:50 68.65280 -75.94118 38390 ft 477 kts 244°
2026-04-21 21:50 68.62820 -76.11073 38384 ft 477 kts 244°
2026-04-21 21:51 68.60347 -76.27965 38399 ft 478 kts 245°
2026-04-21 21:51 68.57870 -76.44740 38384 ft 479 kts 244°
2026-04-21 21:52 68.55353 -76.61633 38384 ft 479 kts 244°
2026-04-21 21:52 68.52819 -76.78485 38384 ft 479 kts 244°
2026-04-21 21:53 68.50284 -76.95201 38387 ft 479 kts 244°
2026-04-21 21:53 68.47718 -77.11965 38382 ft 479 kts 244°
2026-04-21 21:54 68.45135 -77.28698 38382 ft 478 kts 244°
2026-04-21 21:54 68.42535 -77.45391 38380 ft 479 kts 244°
2026-04-21 21:55 68.39938 -77.61922 38370 ft 479 kts 244°
2026-04-21 21:55 68.37302 -77.78562 38371 ft 480 kts 244°
2026-04-21 21:56 68.34650 -77.95159 38384 ft 480 kts 244°
2026-04-21 21:56 68.31982 -78.11716 38383 ft 480 kts 244°
2026-04-21 21:57 68.29310 -78.28154 38376 ft 480 kts 243°
2026-04-21 21:57 68.26606 -78.44646 38397 ft 480 kts 244°
2026-04-21 21:58 68.23883 -78.61124 38373 ft 480 kts 243°
2026-04-21 21:58 68.21143 -78.77561 38374 ft 480 kts 243°
2026-04-21 21:59 68.18392 -78.93932 38369 ft 480 kts 243°
2026-04-21 21:59 68.15641 -79.10168 38364 ft 480 kts 243°
2026-04-21 22:00 68.12855 -79.26475 38372 ft 480 kts 243°
2026-04-21 22:00 68.10054 -79.42739 38367 ft 480 kts 243°
2026-04-21 22:01 68.07234 -79.58976 38366 ft 480 kts 243°
2026-04-21 22:01 68.04416 -79.75074 38359 ft 480 kts 243°
2026-04-21 22:02 68.01566 -79.91226 38360 ft 480 kts 242°
2026-04-21 22:02 67.98685 -80.07347 38359 ft 480 kts 242°
2026-04-21 22:03 67.95689 -80.23270 38361 ft 480 kts 241°
2026-04-21 22:03 67.92676 -80.39000 38359 ft 480 kts 241°
2026-04-21 22:04 67.89640 -80.54816 38382 ft 480 kts 241°
2026-04-21 22:04 67.86601 -80.70607 38354 ft 480 kts 241°
2026-04-21 22:05 67.83542 -80.86394 38355 ft 480 kts 241°
2026-04-21 22:05 67.80468 -81.02136 38349 ft 480 kts 241°
2026-04-21 22:06 67.77402 -81.17720 38349 ft 480 kts 240°
2026-04-21 22:06 67.74300 -81.33365 38349 ft 480 kts 240°
2026-04-21 22:07 67.71182 -81.48979 38346 ft 480 kts 240°
2026-04-21 22:07 67.68074 -81.64421 38352 ft 480 kts 240°
2026-04-21 22:08 67.64933 -81.79914 38333 ft 480 kts 240°
2026-04-21 22:08 67.61777 -81.95371 38333 ft 480 kts 240°
2026-04-21 22:09 67.58601 -82.10809 38338 ft 480 kts 240°
2026-04-21 22:09 67.55417 -82.26176 38328 ft 480 kts 240°
2026-04-21 22:10 67.52214 -82.41523 38327 ft 480 kts 240°
2026-04-21 22:10 67.49018 -82.56730 38331 ft 480 kts 239°
2026-04-21 22:11 67.45782 -82.72011 38322 ft 480 kts 239°
2026-04-21 22:11 67.42530 -82.87259 38323 ft 481 kts 239°
2026-04-21 22:12 67.39264 -83.02467 38319 ft 480 kts 239°
2026-04-21 22:12 67.36004 -83.17538 38319 ft 481 kts 239°
2026-04-21 22:13 67.32706 -83.32676 38320 ft 481 kts 239°
2026-04-21 22:13 67.29415 -83.47675 38319 ft 481 kts 239°
2026-04-21 22:14 67.26092 -83.62717 38344 ft 481 kts 239°
2026-04-21 22:14 67.22754 -83.77724 38322 ft 481 kts 239°
2026-04-21 22:15 67.19402 -83.92687 38322 ft 481 kts 239°
2026-04-21 22:15 67.16031 -84.07631 38319 ft 481 kts 239°
2026-04-21 22:16 67.12669 -84.22430 38314 ft 481 kts 238°
2026-04-21 22:16 67.09269 -84.37294 38313 ft 482 kts 238°
2026-04-21 22:17 67.05880 -84.52016 38314 ft 482 kts 238°
2026-04-21 22:17 67.02445 -84.66827 38316 ft 482 kts 238°
2026-04-21 22:18 66.99587 -84.79078 38313 ft 483 kts 238°
2026-04-21 22:18 66.95565 -84.96201 38313 ft 483 kts 238°
2026-04-21 22:19 66.92657 -85.08496 38302 ft 483 kts 238°
2026-04-21 22:19 66.89198 -85.23036 38304 ft 483 kts 238°
2026-04-21 22:20 66.85698 -85.37649 38296 ft 483 kts 238°
2026-04-21 22:20 66.82186 -85.52210 38284 ft 482 kts 238°
2026-04-21 22:21 66.78684 -85.66636 38293 ft 483 kts 238°
2026-04-21 22:21 66.75141 -85.81132 38279 ft 483 kts 238°
2026-04-21 22:22 66.71614 -85.95474 38280 ft 483 kts 238°
2026-04-21 22:22 66.68049 -86.09868 38278 ft 483 kts 237°
2026-04-21 22:23 66.64478 -86.24198 38281 ft 483 kts 237°
2026-04-21 22:23 66.60888 -86.38506 38275 ft 483 kts 237°
2026-04-21 22:24 66.57283 -86.52784 38285 ft 483 kts 237°
2026-04-21 22:24 66.53668 -86.67005 38279 ft 483 kts 237°
2026-04-21 22:25 66.50041 -86.81184 38279 ft 483 kts 237°
2026-04-21 22:25 66.46420 -86.95250 38276 ft 482 kts 237°
2026-04-21 22:26 66.42765 -87.09355 38275 ft 482 kts 237°
2026-04-21 22:26 66.39097 -87.23425 38276 ft 482 kts 237°
2026-04-21 22:27 66.35445 -87.37340 38270 ft 482 kts 237°
2026-04-21 22:27 66.31751 -87.51328 38272 ft 483 kts 237°
2026-04-21 22:28 66.28042 -87.65281 38276 ft 483 kts 237°
2026-04-21 22:28 66.24349 -87.79090 38275 ft 483 kts 236°
2026-04-21 22:29 66.20619 -87.92949 38274 ft 482 kts 237°
2026-04-21 22:29 66.16881 -88.06751 38279 ft 482 kts 236°
2026-04-21 22:30 66.13131 -88.20512 38274 ft 482 kts 236°
2026-04-21 22:30 66.09395 -88.34138 38277 ft 482 kts 236°
2026-04-21 22:31 66.05621 -88.47817 38277 ft 482 kts 236°
2026-04-21 22:31 66.01842 -88.61432 38274 ft 482 kts 236°
2026-04-21 22:32 65.98042 -88.75035 38275 ft 482 kts 236°
2026-04-21 22:32 65.94257 -88.88503 38279 ft 482 kts 236°
2026-04-21 22:33 65.90435 -89.02021 38268 ft 482 kts 236°
2026-04-21 22:33 65.86602 -89.15496 38270 ft 481 kts 236°
2026-04-21 22:34 65.82784 -89.28838 38271 ft 481 kts 236°
2026-04-21 22:34 65.78932 -89.42218 38267 ft 481 kts 236°
2026-04-21 22:35 65.75071 -89.55546 38268 ft 481 kts 236°
2026-04-21 22:35 65.71218 -89.68768 38268 ft 481 kts 235°
2026-04-21 22:36 65.65380 -89.88657 38268 ft 481 kts 235°
2026-04-21 22:36 65.61476 -90.01857 38250 ft 481 kts 235°
2026-04-21 22:37 65.57586 -90.14930 38262 ft 482 kts 235°
2026-04-21 22:37 65.53654 -90.28071 38262 ft 482 kts 235°
2026-04-21 22:38 65.49714 -90.41160 38262 ft 482 kts 235°
2026-04-21 22:38 65.45790 -90.54119 38260 ft 482 kts 235°
2026-04-21 22:39 65.41828 -90.67126 38258 ft 482 kts 235°
2026-04-21 22:39 65.37848 -90.80117 38257 ft 482 kts 234°
2026-04-21 22:40 65.33857 -90.93068 38252 ft 482 kts 235°
2026-04-21 22:40 65.29886 -91.05880 38252 ft 482 kts 234°
2026-04-21 22:41 65.25872 -91.18756 38254 ft 482 kts 234°
2026-04-21 22:41 65.21854 -91.31572 38251 ft 482 kts 234°
2026-04-21 22:42 65.17850 -91.44269 38252 ft 482 kts 234°
2026-04-21 22:42 65.13807 -91.57019 38251 ft 482 kts 234°
2026-04-21 22:43 65.09751 -91.69736 38251 ft 482 kts 234°
2026-04-21 22:43 65.05714 -91.82320 38252 ft 482 kts 234°
2026-04-21 22:44 65.01610 -91.94919 38249 ft 482 kts 231°
2026-04-21 22:44 64.96678 -92.05728 38250 ft 485 kts 220°
2026-04-21 22:45 64.91272 -92.15193 38252 ft 487 kts 218°
2026-04-21 22:45 64.85745 -92.24479 38253 ft 487 kts 218°
2026-04-21 22:46 64.80224 -92.33739 38252 ft 487 kts 218°
2026-04-21 22:46 64.74744 -92.42950 38250 ft 487 kts 218°
2026-04-21 22:47 64.69221 -92.52209 38249 ft 488 kts 218°
2026-04-21 22:47 64.63690 -92.61439 38250 ft 488 kts 218°
2026-04-21 22:48 64.58188 -92.70571 38249 ft 488 kts 218°
2026-04-21 22:48 64.52641 -92.79729 38249 ft 488 kts 218°
2026-04-21 22:49 64.47097 -92.88834 38246 ft 488 kts 218°
2026-04-21 22:49 64.41579 -92.97852 38245 ft 488 kts 218°
2026-04-21 22:50 64.36024 -93.06885 38247 ft 488 kts 217°
2026-04-21 22:50 64.30465 -93.15879 38231 ft 488 kts 217°
2026-04-21 22:51 64.24895 -93.24846 38237 ft 488 kts 217°
2026-04-21 22:51 64.19313 -93.33787 38242 ft 489 kts 217°
2026-04-21 22:52 64.13730 -93.42685 38240 ft 489 kts 217°
2026-04-21 22:52 64.08141 -93.51549 38239 ft 489 kts 217°
2026-04-21 22:53 64.02543 -93.60382 38246 ft 489 kts 217°
2026-04-21 22:53 63.96973 -93.69126 38246 ft 489 kts 217°
2026-04-21 22:54 63.91354 -93.77906 38254 ft 489 kts 217°
2026-04-21 22:54 63.85731 -93.86648 38254 ft 489 kts 217°
2026-04-21 22:55 63.80147 -93.95286 38246 ft 489 kts 217°
2026-04-21 22:55 63.74519 -94.03951 38263 ft 489 kts 217°
2026-04-21 22:56 63.68893 -94.12571 38261 ft 489 kts 217°
2026-04-21 22:56 63.63250 -94.21174 38260 ft 489 kts 217°
2026-04-21 22:57 63.57605 -94.29737 38259 ft 489 kts 217°
2026-04-21 22:57 63.51952 -94.38272 38262 ft 489 kts 217°
2026-04-21 22:58 63.46331 -94.46716 38264 ft 489 kts 217°
2026-04-21 22:58 63.40672 -94.55179 38261 ft 489 kts 217°
2026-04-21 22:59 63.35006 -94.63609 38239 ft 489 kts 217°
2026-04-21 22:59 63.29341 -94.71997 38255 ft 489 kts 217°
2026-04-21 23:00 63.23664 -94.80365 38267 ft 489 kts 217°
2026-04-21 23:00 63.18024 -94.88638 38261 ft 489 kts 217°
2026-04-21 23:01 63.12330 -94.96948 38263 ft 489 kts 217°
2026-04-21 23:01 63.07596 -95.03830 38255 ft 489 kts 216°
2026-04-21 23:02 63.00939 -95.13459 38265 ft 489 kts 216°
2026-04-21 23:02 62.95273 -95.21614 38263 ft 489 kts 216°
2026-04-21 23:03 62.89563 -95.29792 38254 ft 489 kts 216°
2026-04-21 23:03 62.83855 -95.37928 38257 ft 489 kts 216°
2026-04-21 23:04 62.78143 -95.46033 38258 ft 489 kts 216°
2026-04-21 23:04 62.72423 -95.54111 38256 ft 489 kts 216°
2026-04-21 23:05 62.67662 -95.60806 38254 ft 489 kts 216°
2026-04-21 23:05 62.61003 -95.70127 38252 ft 489 kts 216°
2026-04-21 23:06 62.56199 -95.76820 38254 ft 489 kts 216°
2026-04-21 23:06 62.50465 -95.84775 38249 ft 490 kts 216°
2026-04-21 23:07 62.44766 -95.92644 38251 ft 490 kts 216°
2026-04-21 23:07 62.39026 -96.00533 38223 ft 489 kts 216°
2026-04-21 23:08 62.33277 -96.08399 38249 ft 489 kts 216°
2026-04-21 23:08 62.27527 -96.16229 38252 ft 489 kts 216°
2026-04-21 23:09 62.21772 -96.24030 38251 ft 489 kts 216°
2026-04-21 23:09 62.16011 -96.31806 38252 ft 489 kts 216°
2026-04-21 23:10 62.10249 -96.39547 38251 ft 489 kts 216°
2026-04-21 23:10 62.04479 -96.47263 38250 ft 490 kts 216°
2026-04-21 23:11 61.98711 -96.54941 38253 ft 489 kts 216°
2026-04-21 23:11 61.92934 -96.62597 38255 ft 489 kts 216°
2026-04-21 23:12 61.87152 -96.70224 38249 ft 489 kts 216°
2026-04-21 23:12 61.81365 -96.77825 38248 ft 489 kts 215°
2026-04-21 23:13 61.75576 -96.85393 38254 ft 489 kts 215°
2026-04-21 23:13 61.69777 -96.92939 38251 ft 489 kts 216°
2026-04-21 23:14 61.63978 -97.00454 38252 ft 489 kts 215°
2026-04-21 23:14 61.58213 -97.07892 38235 ft 489 kts 216°
2026-04-21 23:15 61.52407 -97.15348 38246 ft 489 kts 216°
2026-04-21 23:15 61.46601 -97.22772 38244 ft 489 kts 215°
2026-04-21 23:16 61.40746 -97.30225 38244 ft 489 kts 215°
2026-04-21 23:16 61.34969 -97.37547 38238 ft 489 kts 215°
2026-04-21 23:17 61.29148 -97.44892 38239 ft 489 kts 215°
2026-04-21 23:17 61.23326 -97.52206 38234 ft 489 kts 215°
2026-04-21 23:18 61.17494 -97.59501 38240 ft 489 kts 215°
2026-04-21 23:18 61.11662 -97.66763 38198 ft 489 kts 215°
2026-04-21 23:19 61.05826 -97.73999 38240 ft 489 kts 215°
2026-04-21 23:19 60.99985 -97.81210 38234 ft 489 kts 215°
2026-04-21 23:20 60.94145 -97.88389 38237 ft 489 kts 215°
2026-04-21 23:20 60.88298 -97.95546 38230 ft 489 kts 215°
2026-04-21 23:21 60.82449 -98.02674 38213 ft 489 kts 215°
2026-04-21 23:21 60.76596 -98.09775 38216 ft 489 kts 215°
2026-04-21 23:22 60.70739 -98.16852 38222 ft 489 kts 215°
2026-04-21 23:22 60.64875 -98.23906 38215 ft 489 kts 215°
2026-04-21 23:23 60.59016 -98.30924 38218 ft 489 kts 215°
2026-04-21 23:23 60.53156 -98.37916 38217 ft 488 kts 215°
2026-04-21 23:24 60.47288 -98.44885 38193 ft 488 kts 215°
2026-04-21 23:24 60.41419 -98.51828 38207 ft 489 kts 215°
2026-04-21 23:25 60.35547 -98.58744 38213 ft 489 kts 215°
2026-04-21 23:25 60.29667 -98.65640 38207 ft 489 kts 214°
2026-04-21 23:26 60.23821 -98.72467 38189 ft 489 kts 214°
2026-04-21 23:26 60.17946 -98.79300 38202 ft 488 kts 214°
2026-04-21 23:27 60.12061 -98.86116 38188 ft 488 kts 215°
2026-04-21 23:27 60.06180 -98.92900 38189 ft 488 kts 214°
2026-04-21 23:28 60.00291 -98.99666 38184 ft 488 kts 214°
2026-04-21 23:28 59.94408 -99.06438 38171 ft 488 kts 215°
2026-04-21 23:29 59.88537 -99.13214 38174 ft 488 kts 215°
2026-04-21 23:29 59.82663 -99.19962 38172 ft 488 kts 215°
2026-04-21 23:30 59.76780 -99.26684 38164 ft 487 kts 215°
2026-04-21 23:30 59.70946 -99.33320 38157 ft 487 kts 215°
2026-04-21 23:31 59.65072 -99.39976 38156 ft 486 kts 215°
2026-04-21 23:31 59.59195 -99.46608 38146 ft 487 kts 215°
2026-04-21 23:32 59.53310 -99.53221 38114 ft 486 kts 215°
2026-04-21 23:32 59.47417 -99.59817 38137 ft 486 kts 215°
2026-04-21 23:33 59.41536 -99.66374 38131 ft 486 kts 215°
2026-04-21 23:33 59.35650 -99.72909 38116 ft 486 kts 215°
2026-04-21 23:34 59.29763 -99.79418 38129 ft 485 kts 215°
2026-04-21 23:34 59.23884 -99.85893 38124 ft 485 kts 215°
2026-04-21 23:35 59.18008 -99.92340 38112 ft 484 kts 215°
2026-04-21 23:35 59.12128 -99.98764 38125 ft 484 kts 215°
2026-04-21 23:36 59.06290 -100.05118 38106 ft 484 kts 215°
2026-04-21 23:36 59.00413 -100.11490 38105 ft 484 kts 215°
2026-04-21 23:37 58.94524 -100.17848 38105 ft 484 kts 215°
2026-04-21 23:37 58.88641 -100.24173 38092 ft 483 kts 215°
2026-04-21 23:38 58.82766 -100.30465 38098 ft 482 kts 215°
2026-04-21 23:38 58.76897 -100.36730 38096 ft 482 kts 215°
2026-04-21 23:39 58.71029 -100.42970 38089 ft 482 kts 215°
2026-04-21 23:39 58.65148 -100.49198 38087 ft 482 kts 215°
2026-04-21 23:40 58.59273 -100.55395 38058 ft 482 kts 215°
2026-04-21 23:40 58.53396 -100.61570 38080 ft 481 kts 215°
2026-04-21 23:41 58.47560 -100.67678 38085 ft 481 kts 215°
2026-04-21 23:41 58.41691 -100.73795 38086 ft 480 kts 215°
2026-04-21 23:42 58.35827 -100.79886 38082 ft 480 kts 215°
2026-04-21 23:42 58.29957 -100.85961 38077 ft 480 kts 215°
2026-04-21 23:43 58.24086 -100.92013 38081 ft 480 kts 215°
2026-04-21 23:43 58.18213 -100.98046 38078 ft 480 kts 215°
2026-04-21 23:44 58.12337 -101.04057 38077 ft 480 kts 214°
2026-04-21 23:44 58.06455 -101.10051 38053 ft 480 kts 214°
2026-04-21 23:45 57.97646 -101.18984 38029 ft 478 kts 215°
2026-04-21 23:46 57.91792 -101.24896 38064 ft 477 kts 215°
2026-04-21 23:46 57.85940 -101.30784 38056 ft 477 kts 215°
2026-04-21 23:47 57.80083 -101.36655 38056 ft 477 kts 215°
2026-04-21 23:47 57.74229 -101.42500 38056 ft 477 kts 215°
2026-04-21 23:48 57.68366 -101.48332 38051 ft 477 kts 215°
2026-04-21 23:48 57.62513 -101.54131 38050 ft 476 kts 215°
2026-04-21 23:49 57.56670 -101.59900 38048 ft 475 kts 215°
2026-04-21 23:49 57.50821 -101.65655 38043 ft 475 kts 215°
2026-04-21 23:50 57.44975 -101.71387 38044 ft 475 kts 215°
2026-04-21 23:50 57.39129 -101.77097 38043 ft 475 kts 215°
2026-04-21 23:51 57.33323 -101.82745 38040 ft 474 kts 216°
2026-04-21 23:51 57.27484 -101.88406 38045 ft 473 kts 216°
2026-04-21 23:52 57.22600 -101.93127 38033 ft 473 kts 215°
2026-04-21 23:52 57.15832 -101.99643 38027 ft 471 kts 215°
2026-04-21 23:53 57.10029 -102.05211 38026 ft 470 kts 215°
2026-04-21 23:53 57.04224 -102.10762 38020 ft 470 kts 216°
2026-04-21 23:54 56.99408 -102.15350 38014 ft 469 kts 216°
2026-04-21 23:54 56.93610 -102.20859 38225 ft 469 kts 215°
2026-04-21 23:54 56.90717 -102.23598 38453 ft 468 kts 215°
2026-04-21 23:55 56.87825 -102.26332 38626 ft 468 kts 215°
2026-04-21 23:55 56.84931 -102.29064 38755 ft 468 kts 215°
2026-04-21 23:55 56.82037 -102.31792 38866 ft 468 kts 215°
2026-04-21 23:55 56.79143 -102.34515 38977 ft 469 kts 215°
2026-04-21 23:56 56.76243 -102.37239 39046 ft 468 kts 215°
2026-04-21 23:56 56.73350 -102.39948 39204 ft 467 kts 215°
2026-04-21 23:56 56.70457 -102.42655 39322 ft 467 kts 215°
2026-04-21 23:56 56.67570 -102.45353 39425 ft 467 kts 215°
2026-04-21 23:57 56.64675 -102.48054 39523 ft 468 kts 214°
2026-04-21 23:57 56.58879 -102.53446 39711 ft 468 kts 214°
2026-04-21 23:58 56.53076 -102.58824 39886 ft 469 kts 214°
2026-04-21 23:58 56.47260 -102.64196 39975 ft 471 kts 214°
2026-04-21 23:59 56.41423 -102.69566 39970 ft 469 kts 214°
2026-04-21 23:59 56.35606 -102.74898 39939 ft 468 kts 215°
2026-04-22 00:00 56.29855 -102.80150 39955 ft 465 kts 215°
2026-04-22 00:00 56.24086 -102.85408 39952 ft 464 kts 215°
2026-04-22 00:01 56.18316 -102.90650 39944 ft 464 kts 214°
2026-04-22 00:01 56.12552 -102.95871 39933 ft 463 kts 215°
2026-04-22 00:02 56.06857 -103.01215 39938 ft 461 kts 216°
2026-04-22 00:02 56.01194 -103.06616 39927 ft 461 kts 216°
2026-04-22 00:03 55.95520 -103.11985 39901 ft 462 kts 216°
2026-04-22 00:03 55.89843 -103.17309 39917 ft 460 kts 216°
2026-04-22 00:04 55.84175 -103.22597 39898 ft 460 kts 216°
2026-04-22 00:04 55.78505 -103.27871 39907 ft 460 kts 216°
2026-04-22 00:05 55.72837 -103.33130 39902 ft 460 kts 216°
2026-04-22 00:05 55.67167 -103.38372 39890 ft 460 kts 216°
2026-04-22 00:06 55.61495 -103.43598 39891 ft 460 kts 216°
2026-04-22 00:06 55.55818 -103.48813 39872 ft 460 kts 216°
2026-04-22 00:07 55.50182 -103.53971 39878 ft 459 kts 216°
2026-04-22 00:07 55.44524 -103.59132 39883 ft 458 kts 216°
2026-04-22 00:08 55.38854 -103.64289 39881 ft 458 kts 216°
2026-04-22 00:08 55.33190 -103.69426 39882 ft 458 kts 216°
2026-04-22 00:09 55.27517 -103.74552 39879 ft 458 kts 216°
2026-04-22 00:09 55.21845 -103.79660 39879 ft 458 kts 215°
2026-04-22 00:10 55.16175 -103.84749 39869 ft 458 kts 215°
2026-04-22 00:10 55.10501 -103.89828 39870 ft 458 kts 215°
2026-04-22 00:11 55.04823 -103.94893 39862 ft 458 kts 215°
2026-04-22 00:11 54.99144 -103.99942 39863 ft 458 kts 215°
2026-04-22 00:12 54.93461 -104.04979 39855 ft 459 kts 215°
2026-04-22 00:12 54.87761 -104.10019 39856 ft 460 kts 215°
2026-04-22 00:13 54.82058 -104.15041 39851 ft 460 kts 215°
2026-04-22 00:13 54.76351 -104.20049 39851 ft 460 kts 215°
2026-04-22 00:14 54.70643 -104.25043 39844 ft 460 kts 215°
2026-04-22 00:14 54.64930 -104.30027 39840 ft 460 kts 214°
2026-04-22 00:15 54.59209 -104.35002 39844 ft 461 kts 214°
2026-04-22 00:15 54.53484 -104.39964 39845 ft 461 kts 214°
2026-04-22 00:16 54.47753 -104.44916 39839 ft 461 kts 214°
2026-04-22 00:16 54.42022 -104.49852 39842 ft 461 kts 214°
2026-04-22 00:17 54.36285 -104.54778 39810 ft 461 kts 214°
2026-04-22 00:17 54.30558 -104.59679 39831 ft 459 kts 214°
2026-04-22 00:18 54.14431 -104.73401 39818 ft 459 kts 214°
2026-04-22 00:18 53.91580 -104.92639 39818 ft 457 kts 214°
2026-04-22 00:19 53.68758 -105.11618 39830 ft 456 kts 214°
2026-04-22 00:19 53.45940 -105.30367 39847 ft 456 kts 215°
2026-04-22 00:20 53.23070 -105.48934 39784 ft 456 kts 214°
2026-04-22 00:20 53.00251 -105.67238 39841 ft 455 kts 214°
2026-04-22 00:21 52.77569 -105.85219 39865 ft 453 kts 214°
2026-04-22 00:21 52.54857 -106.03022 39862 ft 452 kts 214°
2026-04-22 00:22 52.32011 -106.20715 39855 ft 450 kts 213°
2026-04-22 00:22 52.09498 -106.37960 39804 ft 450 kts 213°
2026-04-22 00:23 51.86924 -106.55056 39834 ft 447 kts 213°
2026-04-22 00:23 51.64361 -106.71953 39825 ft 445 kts 212°
2026-04-22 00:24 51.41863 -106.88622 39824 ft 446 kts 212°
2026-04-22 00:24 51.19292 -107.05161 39816 ft 446 kts 211°
2026-04-22 00:25 50.96686 -107.21547 39821 ft 447 kts 211°
2026-04-22 00:25 50.74082 -107.37756 39800 ft 446 kts 210°
2026-04-22 00:26 50.51474 -107.53797 39802 ft 445 kts 210°
2026-04-22 00:26 50.28889 -107.69655 39804 ft 445 kts 210°
2026-04-22 00:27 50.05886 -107.84079 39789 ft 445 kts 207°
2026-04-22 00:27 49.82913 -107.98403 39780 ft 445 kts 207°
2026-04-22 00:28 49.59915 -108.12587 39781 ft 445 kts 207°
2026-04-22 00:28 49.36947 -108.26610 39779 ft 442 kts 206°
2026-04-22 00:29 49.14041 -108.40457 39774 ft 443 kts 206°
2026-04-22 00:29 48.91170 -108.54144 39749 ft 441 kts 206°
2026-04-22 00:30 48.68425 -108.67622 39754 ft 440 kts 206°
2026-04-22 00:30 48.45586 -108.81027 39738 ft 440 kts 205°
2026-04-22 00:31 48.22723 -108.94314 39733 ft 440 kts 205°
2026-04-22 00:31 47.99745 -109.07542 39727 ft 439 kts 205°
2026-04-22 00:32 47.77090 -109.20460 39706 ft 438 kts 205°
2026-04-22 00:32 47.54291 -109.33339 39698 ft 439 kts 204°
2026-04-22 00:33 47.31402 -109.46150 39701 ft 440 kts 204°
2026-04-22 00:33 47.08604 -109.58790 39711 ft 438 kts 204°
2026-04-22 00:34 46.85071 -109.68435 39718 ft 438 kts 198°
2026-04-22 00:34 46.61462 -109.77478 39711 ft 439 kts 198°
2026-04-22 00:35 46.37972 -109.86399 39719 ft 435 kts 198°
2026-04-22 00:35 46.14517 -109.95228 39733 ft 436 kts 198°
2026-04-22 00:36 45.91047 -110.03985 39741 ft 435 kts 197°
2026-04-22 00:36 45.67665 -110.12633 39802 ft 433 kts 197°
2026-04-22 00:37 45.44263 -110.21216 39822 ft 435 kts 197°
2026-04-22 00:37 45.20838 -110.29730 39874 ft 434 kts 197°
2026-04-22 00:38 44.97439 -110.38170 39876 ft 433 kts 196°
2026-04-22 00:38 44.78015 -110.45116 39887 ft 433 kts 196°
2026-04-22 00:39 44.54691 -110.53396 39895 ft 431 kts 196°
2026-04-22 00:39 44.27625 -110.62922 39886 ft 431 kts 195°
2026-04-22 00:40 44.04450 -110.71001 39857 ft 429 kts 195°
2026-04-22 00:40 43.85036 -110.77728 39894 ft 428 kts 195°
2026-04-22 00:41 43.61835 -110.85692 39948 ft 431 kts 195°
2026-04-22 00:41 43.38651 -110.93598 39846 ft 429 kts 195°
2026-04-22 00:42 43.15456 -111.01443 39827 ft 429 kts 195°
2026-04-22 00:42 42.92375 -111.09192 39831 ft 429 kts 195°
2026-04-22 00:43 42.69140 -111.16926 39887 ft 429 kts 194°
2026-04-22 00:43 42.45948 -111.24594 39820 ft 429 kts 194°
2026-04-22 00:44 42.22743 -111.32203 39795 ft 429 kts 194°
2026-04-22 00:44 41.99426 -111.39794 39801 ft 437 kts 194°
2026-04-22 00:45 41.75530 -111.47511 39778 ft 442 kts 194°
2026-04-22 00:45 41.51561 -111.55193 39764 ft 444 kts 194°
2026-04-22 00:46 41.27501 -111.62850 39770 ft 445 kts 194°
2026-04-22 00:46 41.03388 -111.70461 39797 ft 445 kts 194°
2026-04-22 00:47 40.79282 -111.78012 39799 ft 445 kts 194°
2026-04-22 00:47 40.55255 -111.85484 39741 ft 442 kts 194°
2026-04-22 00:48 40.31247 -111.92897 39807 ft 442 kts 194°
2026-04-22 00:48 40.19994 -111.99149 39790 ft 441 kts 208°
2026-04-22 00:48 40.09151 -112.06683 39762 ft 441 kts 208°
2026-04-22 00:49 39.87373 -112.21616 39737 ft 443 kts 208°
2026-04-22 00:49 39.65557 -112.36454 39735 ft 441 kts 208°
2026-04-22 00:50 39.43809 -112.51140 39860 ft 438 kts 208°
2026-04-22 00:50 39.32988 -112.58409 39727 ft 438 kts 208°
2026-04-22 00:50 39.22188 -112.65637 39720 ft 437 kts 208°
2026-04-22 00:51 39.00757 -112.79909 39728 ft 436 kts 208°
2026-04-22 00:51 38.79211 -112.94155 39722 ft 435 kts 208°
2026-04-22 00:52 38.57598 -113.08351 39864 ft 437 kts 208°
2026-04-22 00:52 38.35975 -113.22456 39858 ft 437 kts 208°
2026-04-22 00:53 38.14304 -113.36498 39763 ft 436 kts 208°
2026-04-22 00:53 37.92520 -113.49960 39826 ft 437 kts 199°
2026-04-22 00:53 37.80706 -113.53129 40638 ft 430 kts 194°
2026-04-22 00:54 37.77442 -113.53883 40725 ft 430 kts 193°
2026-04-22 00:54 37.71541 -113.55263 40779 ft 430 kts 194°
2026-04-22 00:55 37.65671 -113.56666 40785 ft 429 kts 194°
2026-04-22 00:55 37.56840 -113.58793 40782 ft 434 kts 195°
2026-04-22 00:56 37.50867 -113.60228 40783 ft 439 kts 195°
2026-04-22 00:56 37.44830 -113.61673 40791 ft 444 kts 195°
2026-04-22 00:57 37.38745 -113.63124 40785 ft 446 kts 195°
2026-04-22 00:57 37.32646 -113.64575 40783 ft 445 kts 195°
2026-04-22 00:58 37.26577 -113.66016 40810 ft 443 kts 195°
2026-04-22 00:58 37.20524 -113.67454 40822 ft 443 kts 195°
2026-04-22 00:59 37.14470 -113.68893 40828 ft 443 kts 195°
2026-04-22 00:59 37.08422 -113.70326 40839 ft 442 kts 195°
2026-04-22 01:00 37.02545 -113.72324 40836 ft 436 kts 203°
2026-04-22 01:00 36.96872 -113.74976 40774 ft 435 kts 204°
2026-04-22 01:01 36.94051 -113.76349 40470 ft 435 kts 204°
2026-04-22 01:01 36.91237 -113.77725 40038 ft 434 kts 205°
2026-04-22 01:01 36.88424 -113.79102 39825 ft 434 kts 205°
2026-04-22 01:01 36.86022 -113.80274 39777 ft 434 kts 205°
2026-04-22 01:02 36.80378 -113.83015 39775 ft 435 kts 205°
2026-04-22 01:02 36.74733 -113.85740 39768 ft 435 kts 205°
2026-04-22 01:03 36.69084 -113.88458 39762 ft 435 kts 204°
2026-04-22 01:03 36.63481 -113.91187 39763 ft 434 kts 206°
2026-04-22 01:04 36.57958 -113.94231 39765 ft 434 kts 208°
2026-04-22 01:04 36.52468 -113.97350 39771 ft 434 kts 208°
2026-04-22 01:05 36.46964 -114.00427 39772 ft 434 kts 207°
2026-04-22 01:05 36.41480 -114.03550 39752 ft 432 kts 211°
2026-04-22 01:06 36.36299 -114.07318 39746 ft 431 kts 214°
2026-04-22 01:06 36.31196 -114.11224 39757 ft 431 kts 214°
2026-04-22 01:07 36.26098 -114.15157 39732 ft 432 kts 214°
2026-04-22 01:07 36.20992 -114.19078 39746 ft 432 kts 214°
2026-04-22 01:08 36.15883 -114.22986 39748 ft 432 kts 214°
2026-04-22 01:08 36.10801 -114.26923 39733 ft 430 kts 217°
2026-04-22 01:09 36.06301 -114.31756 39737 ft 429 kts 227°
2026-04-22 01:09 36.02258 -114.37200 39738 ft 430 kts 229°
2026-04-22 01:10 35.98291 -114.42742 39732 ft 431 kts 229°
2026-04-22 01:10 35.94342 -114.48250 39749 ft 431 kts 229°
2026-04-22 01:11 35.90351 -114.53775 39760 ft 431 kts 229°
2026-04-22 01:11 35.86350 -114.59287 39776 ft 431 kts 229°
2026-04-22 01:12 35.82347 -114.64792 39794 ft 430 kts 229°
2026-04-22 01:12 35.78349 -114.70290 39801 ft 431 kts 229°
2026-04-22 01:13 35.74342 -114.75780 39799 ft 431 kts 229°
2026-04-22 01:13 35.70333 -114.81267 39846 ft 431 kts 229°
2026-04-22 01:14 35.66321 -114.86749 39849 ft 431 kts 229°
2026-04-22 01:14 35.62314 -114.92235 39848 ft 431 kts 229°
2026-04-22 01:15 35.58302 -114.97718 39851 ft 431 kts 229°
2026-04-22 01:15 35.54290 -115.03192 39880 ft 431 kts 229°
2026-04-22 01:16 35.50278 -115.08659 39872 ft 431 kts 229°
2026-04-22 01:16 35.46180 -115.14036 39875 ft 431 kts 227°
2026-04-22 01:17 35.42090 -115.19349 39899 ft 431 kts 227°
2026-04-22 01:17 35.37982 -115.24697 39900 ft 430 kts 227°
2026-04-22 01:18 35.33929 -115.29970 39921 ft 421 kts 228°
2026-04-22 01:18 35.29923 -115.35178 39927 ft 419 kts 228°
2026-04-22 01:19 35.25933 -115.40357 39940 ft 418 kts 228°
2026-04-22 01:19 35.21947 -115.45523 39939 ft 418 kts 228°
2026-04-22 01:20 35.17956 -115.50688 39898 ft 418 kts 228°
2026-04-22 01:20 35.15959 -115.53269 39690 ft 417 kts 228°
2026-04-22 01:20 35.13966 -115.55844 39432 ft 416 kts 228°
2026-04-22 01:21 35.11976 -115.58415 38804 ft 417 kts 228°
2026-04-22 01:21 35.09986 -115.60976 38199 ft 414 kts 228°
2026-04-22 01:21 35.08001 -115.63510 37643 ft 412 kts 228°
2026-04-22 01:21 35.06020 -115.66036 37260 ft 412 kts 228°
2026-04-22 01:22 35.04042 -115.68560 36881 ft 412 kts 228°
2026-04-22 01:22 35.02061 -115.71088 36485 ft 411 kts 228°
2026-04-22 01:22 35.00086 -115.73607 36109 ft 411 kts 228°
2026-04-22 01:22 34.98106 -115.76131 35735 ft 411 kts 228°
2026-04-22 01:23 34.96128 -115.78650 35356 ft 411 kts 228°
2026-04-22 01:23 34.94150 -115.81169 34994 ft 411 kts 228°
2026-04-22 01:23 34.92176 -115.83680 34629 ft 411 kts 228°
2026-04-22 01:23 34.90199 -115.86194 34277 ft 410 kts 228°
2026-04-22 01:24 34.88225 -115.88702 33925 ft 410 kts 228°
2026-04-22 01:24 34.86915 -115.90365 33656 ft 410 kts 228°
2026-04-22 01:24 34.84294 -115.93690 33123 ft 412 kts 228°
2026-04-22 01:24 34.82311 -115.96204 32737 ft 413 kts 228°
2026-04-22 01:25 34.80315 -115.98731 32319 ft 414 kts 228°
2026-04-22 01:25 34.78315 -116.01264 31942 ft 416 kts 228°
2026-04-22 01:25 34.76308 -116.03812 31576 ft 418 kts 229°
2026-04-22 01:25 34.74301 -116.06375 31201 ft 420 kts 228°
2026-04-22 01:26 34.72281 -116.08949 30842 ft 420 kts 228°
2026-04-22 01:26 34.70918 -116.10684 30593 ft 420 kts 228°
2026-04-22 01:26 34.68907 -116.13241 30239 ft 418 kts 228°
2026-04-22 01:26 34.66898 -116.15796 29875 ft 417 kts 228°
2026-04-22 01:27 34.64900 -116.18334 29450 ft 415 kts 228°
2026-04-22 01:27 34.62907 -116.20863 29042 ft 413 kts 228°
2026-04-22 01:27 34.60924 -116.23382 28639 ft 411 kts 228°
2026-04-22 01:27 34.58952 -116.25882 28228 ft 409 kts 228°
2026-04-22 01:28 34.56984 -116.28374 27832 ft 409 kts 228°
2026-04-22 01:28 34.55046 -116.30828 27447 ft 408 kts 229°
2026-04-22 01:28 34.53090 -116.33305 27073 ft 406 kts 228°
2026-04-22 01:28 34.51136 -116.35774 26691 ft 404 kts 228°
2026-04-22 01:29 34.49191 -116.38230 26323 ft 403 kts 228°
2026-04-22 01:29 34.47254 -116.40675 25924 ft 401 kts 228°
2026-04-22 01:29 34.45322 -116.43113 25563 ft 401 kts 228°
2026-04-22 01:29 34.43410 -116.45573 25288 ft 401 kts 230°
2026-04-22 01:30 34.41694 -116.48216 25054 ft 399 kts 236°
2026-04-22 01:30 34.40278 -116.51095 24832 ft 397 kts 242°
2026-04-22 01:30 34.39038 -116.54058 24596 ft 389 kts 243°
2026-04-22 01:30 34.37858 -116.56948 24347 ft 377 kts 244°
2026-04-22 01:31 34.36711 -116.59747 24122 ft 366 kts 244°
2026-04-22 01:31 34.35598 -116.62461 23963 ft 353 kts 244°
2026-04-22 01:31 34.34521 -116.65079 23958 ft 346 kts 244°
2026-04-22 01:31 34.33446 -116.67688 23957 ft 346 kts 244°
2026-04-22 01:32 34.32382 -116.70303 23956 ft 347 kts 244°
2026-04-22 01:32 34.31331 -116.72928 23956 ft 347 kts 245°
2026-04-22 01:32 34.30277 -116.75560 23943 ft 348 kts 244°
2026-04-22 01:32 34.29223 -116.78188 23672 ft 347 kts 244°
2026-04-22 01:33 34.28168 -116.80814 23085 ft 347 kts 244°
2026-04-22 01:33 34.27111 -116.83438 22447 ft 347 kts 244°
2026-04-22 01:33 34.26056 -116.86056 21835 ft 346 kts 244°
2026-04-22 01:33 34.25002 -116.88668 21279 ft 345 kts 245°
2026-04-22 01:34 34.23956 -116.91261 20695 ft 343 kts 244°
2026-04-22 01:34 34.22909 -116.93852 20101 ft 341 kts 244°
2026-04-22 01:34 34.21869 -116.96422 19524 ft 340 kts 244°
2026-04-22 01:34 34.20847 -116.98948 18987 ft 338 kts 244°
2026-04-22 01:35 34.19818 -117.01499 18496 ft 337 kts 244°
2026-04-22 01:35 34.18879 -117.04079 17943 ft 338 kts 250°
2026-04-22 01:35 34.18109 -117.06829 17513 ft 353 kts 251°
2026-04-22 01:35 34.17366 -117.09682 17092 ft 358 kts 252°
2026-04-22 01:36 34.16635 -117.12557 16708 ft 357 kts 252°
2026-04-22 01:36 34.15917 -117.15412 16284 ft 354 kts 251°
2026-04-22 01:36 34.15202 -117.18253 15916 ft 355 kts 252°
2026-04-22 01:36 34.14500 -117.21093 15581 ft 351 kts 252°
2026-04-22 01:37 34.13801 -117.23908 15196 ft 348 kts 252°
2026-04-22 01:37 34.13107 -117.26699 14815 ft 347 kts 252°
2026-04-22 01:37 34.12415 -117.29477 14436 ft 345 kts 252°
2026-04-22 01:37 34.11724 -117.32247 14073 ft 344 kts 251°
2026-04-22 01:38 34.11037 -117.35001 13665 ft 342 kts 251°
2026-04-22 01:38 34.10354 -117.37736 13260 ft 338 kts 251°
2026-04-22 01:38 34.09686 -117.40410 12830 ft 328 kts 251°
2026-04-22 01:38 34.09042 -117.42987 12399 ft 310 kts 251°
2026-04-22 01:39 34.08443 -117.45386 12055 ft 288 kts 251°
2026-04-22 01:39 34.07866 -117.47685 11964 ft 286 kts 251°
2026-04-22 01:39 34.07292 -117.49968 11770 ft 283 kts 251°
2026-04-22 01:39 34.06722 -117.52232 11531 ft 282 kts 251°
2026-04-22 01:40 34.06143 -117.54487 11280 ft 281 kts 251°
2026-04-22 01:40 34.05564 -117.56740 11037 ft 281 kts 251°
2026-04-22 01:40 34.04987 -117.58990 10800 ft 280 kts 251°
2026-04-22 01:40 34.04413 -117.61231 10562 ft 280 kts 250°
2026-04-22 01:41 34.03837 -117.63478 10325 ft 280 kts 250°
2026-04-22 01:41 34.03261 -117.65720 10091 ft 280 kts 250°
2026-04-22 01:41 34.02687 -117.67961 9988 ft 280 kts 250°
2026-04-22 01:41 34.02199 -117.70215 9977 ft 273 kts 257°
2026-04-22 01:42 34.01944 -117.72387 9813 ft 253 kts 259°
2026-04-22 01:42 34.01738 -117.74529 9714 ft 259 kts 259°
2026-04-22 01:42 34.01533 -117.76681 9545 ft 258 kts 260°
2026-04-22 01:42 34.01332 -117.78802 9340 ft 256 kts 260°
2026-04-22 01:43 34.01125 -117.80945 9049 ft 258 kts 260°
2026-04-22 01:43 34.00915 -117.83091 8692 ft 258 kts 260°
2026-04-22 01:43 34.00708 -117.85234 8346 ft 257 kts 260°
2026-04-22 01:43 34.00498 -117.87375 7994 ft 257 kts 260°
2026-04-22 01:44 34.00288 -117.89515 7638 ft 257 kts 260°
2026-04-22 01:44 34.00078 -117.91651 7283 ft 257 kts 261°
2026-04-22 01:44 33.99873 -117.93798 6938 ft 258 kts 260°
2026-04-22 01:44 33.99661 -117.95939 6554 ft 257 kts 261°
2026-04-22 01:45 33.99449 -117.98074 6221 ft 255 kts 261°
2026-04-22 01:45 33.99246 -118.00157 5889 ft 244 kts 261°
2026-04-22 01:45 33.99049 -118.02192 5518 ft 244 kts 261°
2026-04-22 01:45 33.98842 -118.04218 5172 ft 243 kts 261°
2026-04-22 01:46 33.98641 -118.06218 4963 ft 238 kts 262°
2026-04-22 01:46 33.98455 -118.08099 4735 ft 220 kts 262°
2026-04-22 01:46 33.98274 -118.09896 4401 ft 209 kts 262°
2026-04-22 01:46 33.98104 -118.11591 4052 ft 202 kts 262°
2026-04-22 01:47 33.97945 -118.13246 3990 ft 198 kts 263°
2026-04-22 01:47 33.97797 -118.14892 3983 ft 197 kts 263°
2026-04-22 01:47 33.97633 -118.16533 3954 ft 198 kts 263°
2026-04-22 01:47 33.97470 -118.18169 3775 ft 192 kts 263°
2026-04-22 01:48 33.97315 -118.19716 3508 ft 180 kts 263°
2026-04-22 01:48 33.97163 -118.21184 3258 ft 175 kts 263°
2026-04-22 01:48 33.97015 -118.22626 3006 ft 172 kts 263°
2026-04-22 01:48 33.96868 -118.24056 2788 ft 173 kts 264°
2026-04-22 01:49 33.96723 -118.25479 2543 ft 168 kts 263°
2026-04-22 01:49 33.96585 -118.26823 2313 ft 155 kts 263°
2026-04-22 01:49 33.96457 -118.28065 2106 ft 144 kts 263°
2026-04-22 01:49 33.96339 -118.29223 1920 ft 135 kts 263°
2026-04-22 01:50 33.96228 -118.30303 1752 ft 127 kts 263°
2026-04-22 01:50 33.96119 -118.31355 1590 ft 126 kts 264°
2026-04-22 01:50 33.96012 -118.32406 1417 ft 127 kts 263°
2026-04-22 01:50 33.95898 -118.33457 1303 ft 126 kts 262°
2026-04-22 01:51 33.95774 -118.34496 1193 ft 124 kts 263°
2026-04-22 01:51 33.95661 -118.35540 1170 ft 128 kts 264°
2026-04-22 01:51 33.95575 -118.36634 1025 ft 133 kts 264°
2026-04-22 01:51 33.95469 -118.37710 785 ft 128 kts 261°
2026-04-22 01:52 33.95368 -118.38761 474 ft 126 kts 261°
2026-04-22 01:52 33.95249 -118.39803 254 ft 125 kts 260°
2026-04-22 01:52 33.95145 -118.40814 103 ft 117 kts 262°
2026-04-22 01:52 33.95067 -118.41594 101 ft 58 kts 264°
2026-04-22 01:53 33.95037 -118.41903 104 ft 32 kts 263°
2026-04-22 01:53 33.94973 -118.42146 103 ft 28 kts 237°
2026-04-22 01:53 33.94838 -118.42270 104 ft 18 kts 189°
2026-04-22 01:53 33.94710 -118.42266 101 ft 19 kts 158°
2026-04-22 01:54 33.94691 -118.42140 101 ft 14 kts 82°
2026-04-22 01:54 33.94705 -118.42011 101 ft 17 kts 82°
2026-04-22 01:54 33.94720 -118.41856 99 ft 18 kts 84°
2026-04-22 01:54 33.94734 -118.41716 102 ft 18 kts 82°
2026-04-22 01:55 33.94752 -118.41552 101 ft 21 kts 82°
2026-04-22 01:55 33.94778 -118.41375 102 ft 22 kts 78°
2026-04-22 01:55 33.94798 -118.41230 104 ft 13 kts 83°
2026-04-22 01:55 33.94810 -118.41117 102 ft 13 kts 83°
2026-04-22 01:56 33.94822 -118.41004 102 ft 15 kts 83°
2026-04-22 01:56 33.94829 -118.40934 103 ft 0 kts 87°
2026-04-22 01:56 33.94829 -118.40933 103 ft 0 kts 88°
2026-04-22 01:56 33.94812 -118.40901 103 ft 7 kts 138°
2026-04-22 01:57 33.94760 -118.40897 102 ft 9 kts 203°
2026-04-22 01:57 33.94700 -118.40908 102 ft 5 kts 172°
2026-04-22 01:57 33.94657 -118.40902 100 ft 8 kts 173°
2026-04-22 01:57 33.94596 -118.40901 101 ft 10 kts 186°
2026-04-22 01:58 33.94562 -118.40901 100 ft 3 kts 169°
2026-04-22 01:58 33.94534 -118.40892 100 ft 5 kts 168°
2026-04-22 01:58 33.94530 -118.40891 100 ft 0 kts 169°
2026-04-22 01:58 33.94511 -118.40893 100 ft 4 kts 191°
2026-04-22 01:59 33.94487 -118.40919 103 ft 5 kts 239°
2026-04-22 01:59 33.94479 -118.40966 101 ft 7 kts 260°
2026-04-22 01:59 33.94476 -118.40990 102 ft 0 kts 261°